Time,TemperatureF,DewpointF,PressureIn,WindDirection,WindDirectionDegrees,WindSpeedMPH,WindSpeedGustMPH,Humidity,HourlyPrecipIn,Conditions,Clouds,dailyrainin,SoftwareType,DateUTC
2013-09-19 00:00:00,71.9,68.5,29.88,South,171,4.0,4.0,89,0.00,,,0.04,Wunderground v.1.15,2013-09-19 05:00:00,
2013-09-19 00:03:00,71.9,68.5,29.88,South,172,3.0,4.0,89,0.00,,,0.00,Wunderground v.1.15,2013-09-19 05:03:00,
2013-09-19 00:05:00,71.9,68.5,29.88,South,189,3.0,4.0,89,0.00,,,0.00,Wunderground v.1.15,2013-09-19 05:05:00,
2013-09-19 00:06:00,71.9,68.5,29.88,South,188,3.0,4.0,89,0.00,,,0.00,Wunderground v.1.15,2013-09-19 05:06:00,
2013-09-19 00:08:00,71.9,68.5,29.89,South,188,2.0,4.0,89,0.00,,,0.00,Wunderground v.1.15,2013-09-19 05:08:00,
2013-09-19 00:09:00,71.8,68.4,29.88,South,174,2.0,4.0,89,0.00,,,0.00,Wunderground v.1.15,2013-09-19 05:09:00,
2013-09-19 00:11:00,71.9,68.5,29.88,South,176,3.0,4.0,89,0.00,,,0.00,Wunderground v.1.15,2013-09-19 05:11:00,
2013-09-19 00:14:00,71.8,68.4,29.88,South,174,3.0,5.0,89,0.00,,,0.00,Wunderground v.1.15,2013-09-19 05:14:00,
2013-09-19 00:16:00,71.8,68.4,29.88,South,172,3.0,5.0,89,0.00,,,0.00,Wunderground v.1.15,2013-09-19 05:16:00,
2013-09-19 00:18:00,71.8,68.7,29.88,South,172,3.0,5.0,90,0.00,,,0.00,Wunderground v.1.15,2013-09-19 05:18:00,
2013-09-19 00:19:00,71.8,68.7,29.88,South,172,4.0,5.0,90,0.00,,,0.00,Wunderground v.1.15,2013-09-19 05:19:00,
2013-09-19 00:20:00,71.8,68.7,29.88,South,173,4.0,4.0,90,0.00,,,0.00,Wunderground v.1.15,2013-09-19 05:20:00,
2013-09-19 00:21:00,71.8,68.7,29.88,South,175,3.0,5.0,90,0.00,,,0.00,Wunderground v.1.15,2013-09-19 05:21:00,
2013-09-19 00:26:00,71.9,68.8,29.88,South,175,4.0,6.0,90,0.00,,,0.00,Wunderground v.1.15,2013-09-19 05:26:00,
2013-09-19 00:29:00,71.9,68.8,29.88,South,174,4.0,6.0,90,0.00,,,0.00,Wunderground v.1.15,2013-09-19 05:29:00,
2013-09-19 00:31:00,72.0,68.9,29.88,SSW,202,4.0,4.0,90,0.00,,,0.00,Wunderground v.1.15,2013-09-19 05:31:00,
2013-09-19 00:32:00,72.0,68.9,29.88,SSW,194,4.0,6.0,90,0.00,,,0.00,Wunderground v.1.15,2013-09-19 05:32:00,
2013-09-19 00:33:00,72.0,68.9,29.88,SSW,192,5.0,6.0,90,0.00,,,0.00,Wunderground v.1.15,2013-09-19 05:33:00,
2013-09-19 00:34:00,72.1,69.0,29.88,South,174,5.0,6.0,90,0.00,,,0.00,Wunderground v.1.15,2013-09-19 05:34:00,
2013-09-19 00:37:00,72.1,69.0,29.88,South,179,5.0,6.0,90,0.00,,,0.00,Wunderground v.1.15,2013-09-19 05:37:00,
2013-09-19 00:39:00,72.2,68.8,29.88,South,180,5.0,6.0,89,0.00,,,0.00,Wunderground v.1.15,2013-09-19 05:39:00,
2013-09-19 00:42:00,72.2,68.8,29.88,South,184,5.0,5.0,89,0.00,,,0.00,Wunderground v.1.15,2013-09-19 05:42:00,
2013-09-19 00:44:00,72.2,68.8,29.88,South,190,5.0,6.0,89,0.00,,,0.00,Wunderground v.1.15,2013-09-19 05:44:00,
2013-09-19 00:48:00,72.3,68.9,29.88,South,175,5.0,6.0,89,0.00,,,0.00,Wunderground v.1.15,2013-09-19 05:48:00,
2013-09-19 00:49:00,72.3,68.9,29.88,South,189,5.0,6.0,89,0.00,,,0.00,Wunderground v.1.15,2013-09-19 05:49:00,
2013-09-19 00:51:00,72.2,68.8,29.88,South,189,4.0,6.0,89,0.00,,,0.00,Wunderground v.1.15,2013-09-19 05:51:00,
2013-09-19 00:54:00,72.2,68.8,29.88,South,182,4.0,6.0,89,0.00,,,0.00,Wunderground v.1.15,2013-09-19 05:54:00,
2013-09-19 00:55:00,72.2,68.8,29.88,South,179,4.0,6.0,89,0.00,,,0.00,Wunderground v.1.15,2013-09-19 05:55:00,
2013-09-19 00:56:00,72.2,68.8,29.88,SSW,192,4.0,9.0,89,0.00,,,0.00,Wunderground v.1.15,2013-09-19 05:56:00,
2013-09-19 01:00:00,72.1,69.0,29.88,SSE,165,4.0,5.0,90,0.00,,,0.00,Wunderground v.1.15,2013-09-19 06:00:00,
2013-09-19 01:01:00,72.1,69.0,29.88,SSE,167,4.0,5.0,90,0.00,,,0.00,Wunderground v.1.15,2013-09-19 06:01:00,
2013-09-19 01:02:00,72.1,69.0,29.88,South,190,4.0,7.0,90,0.00,,,0.00,Wunderground v.1.15,2013-09-19 06:02:00,
2013-09-19 01:06:00,72.0,68.9,29.88,South,188,4.0,7.0,90,0.00,,,0.00,Wunderground v.1.15,2013-09-19 06:06:00,
2013-09-19 01:07:00,72.0,68.9,29.88,South,188,4.0,7.0,90,0.00,,,0.00,Wunderground v.1.15,2013-09-19 06:07:00,
2013-09-19 01:08:00,72.0,68.9,29.88,South,188,4.0,7.0,90,0.00,,,0.00,Wunderground v.1.15,2013-09-19 06:08:00,
2013-09-19 01:11:00,71.9,68.8,29.88,South,187,3.0,4.0,90,0.00,,,0.00,Wunderground v.1.15,2013-09-19 06:11:00,
2013-09-19 01:12:00,71.9,68.8,29.88,South,178,3.0,7.0,90,0.00,,,0.00,Wunderground v.1.15,2013-09-19 06:12:00,
2013-09-19 01:13:00,71.9,68.8,29.88,South,186,3.0,7.0,90,0.00,,,0.00,Wunderground v.1.15,2013-09-19 06:13:00,
2013-09-19 01:15:00,71.9,68.8,29.88,South,190,3.0,7.0,90,0.00,,,0.00,Wunderground v.1.15,2013-09-19 06:15:00,
2013-09-19 01:17:00,71.9,68.8,29.88,South,181,4.0,9.0,90,0.00,,,0.00,Wunderground v.1.15,2013-09-19 06:17:00,
2013-09-19 01:18:00,71.8,68.7,29.88,South,181,4.0,9.0,90,0.00,,,0.00,Wunderground v.1.15,2013-09-19 06:18:00,
2013-09-19 01:21:00,71.8,68.7,29.88,South,186,4.0,6.0,90,0.00,,,0.00,Wunderground v.1.15,2013-09-19 06:21:00,
2013-09-19 01:24:00,71.8,68.7,29.88,South,189,4.0,7.0,90,0.00,,,0.00,Wunderground v.1.15,2013-09-19 06:24:00,
2013-09-19 01:25:00,71.8,68.7,29.88,South,190,4.0,7.0,90,0.00,,,0.00,Wunderground v.1.15,2013-09-19 06:25:00,
2013-09-19 01:26:00,71.8,68.7,29.88,South,188,4.0,7.0,90,0.00,,,0.00,Wunderground v.1.15,2013-09-19 06:26:00,
2013-09-19 01:29:00,71.7,68.6,29.88,South,190,4.0,7.0,90,0.00,,,0.00,Wunderground v.1.15,2013-09-19 06:29:00,
2013-09-19 01:31:00,71.7,68.6,29.88,SSW,198,4.0,7.0,90,0.00,,,0.00,Wunderground v.1.15,2013-09-19 06:31:00,
2013-09-19 01:32:00,71.7,68.6,29.88,SSW,196,4.0,7.0,90,0.00,,,0.00,Wunderground v.1.15,2013-09-19 06:32:00,
2013-09-19 01:36:00,71.7,68.6,29.88,South,178,4.0,7.0,90,0.00,,,0.00,Wunderground v.1.15,2013-09-19 06:36:00,
2013-09-19 01:37:00,71.6,68.5,29.88,South,178,4.0,7.0,90,0.00,,,0.00,Wunderground v.1.15,2013-09-19 06:37:00,
2013-09-19 01:38:00,71.6,68.5,29.88,South,175,4.0,7.0,90,0.00,,,0.00,Wunderground v.1.15,2013-09-19 06:38:00,
2013-09-19 01:42:00,71.6,68.5,29.88,South,178,4.0,4.0,90,0.00,,,0.00,Wunderground v.1.15,2013-09-19 06:42:00,
2013-09-19 01:44:00,71.6,68.5,29.88,South,169,4.0,5.0,90,0.00,,,0.00,Wunderground v.1.15,2013-09-19 06:44:00,
2013-09-19 01:46:00,71.5,68.4,29.88,South,174,4.0,5.0,90,0.00,,,0.00,Wunderground v.1.15,2013-09-19 06:46:00,
2013-09-19 01:47:00,71.5,68.4,29.88,South,173,4.0,5.0,90,0.00,,,0.00,Wunderground v.1.15,2013-09-19 06:47:00,
2013-09-19 01:48:00,71.5,68.4,29.88,South,174,4.0,5.0,90,0.00,,,0.00,Wunderground v.1.15,2013-09-19 06:48:00,
2013-09-19 01:52:00,71.4,68.3,29.88,SSW,195,3.0,5.0,90,0.00,,,0.00,Wunderground v.1.15,2013-09-19 06:52:00,
2013-09-19 01:54:00,71.4,68.6,29.88,SSW,192,4.0,5.0,91,0.00,,,0.00,Wunderground v.1.15,2013-09-19 06:54:00,
2013-09-19 01:55:00,71.4,68.6,29.88,SSW,192,3.0,5.0,91,0.00,,,0.00,Wunderground v.1.15,2013-09-19 06:55:00,
2013-09-19 01:56:00,71.3,68.5,29.88,South,191,3.0,5.0,91,0.00,,,0.00,Wunderground v.1.15,2013-09-19 06:56:00,
2013-09-19 01:59:00,71.3,68.5,29.88,SSW,192,3.0,5.0,91,0.00,,,0.00,Wunderground v.1.15,2013-09-19 06:59:00,
2013-09-19 02:00:00,71.3,68.5,29.88,SSW,192,3.0,3.0,91,0.00,,,0.00,Wunderground v.1.15,2013-09-19 07:00:00,
2013-09-19 02:01:00,71.2,68.4,29.88,South,190,3.0,3.0,91,0.00,,,0.00,Wunderground v.1.15,2013-09-19 07:01:00,
2013-09-19 02:06:00,71.1,68.3,29.88,South,186,3.0,4.0,91,0.00,,,0.00,Wunderground v.1.15,2013-09-19 07:06:00,
2013-09-19 02:07:00,71.1,68.3,29.88,South,186,3.0,4.0,91,0.00,,,0.00,Wunderground v.1.15,2013-09-19 07:07:00,
2013-09-19 02:12:00,71.0,68.2,29.88,South,174,3.0,4.0,91,0.00,,,0.00,Wunderground v.1.15,2013-09-19 07:12:00,
2013-09-19 02:13:00,71.0,68.2,29.88,South,173,3.0,4.0,91,0.00,,,0.00,Wunderground v.1.15,2013-09-19 07:13:00,
2013-09-19 02:14:00,71.0,68.2,29.87,South,173,3.0,4.0,91,0.00,,,0.00,Wunderground v.1.15,2013-09-19 07:14:00,
2013-09-19 02:15:00,71.0,68.2,29.88,South,173,3.0,4.0,91,0.00,,,0.00,Wunderground v.1.15,2013-09-19 07:15:00,
2013-09-19 02:18:00,70.9,68.1,29.88,South,173,3.0,4.0,91,0.00,,,0.00,Wunderground v.1.15,2013-09-19 07:18:00,
2013-09-19 02:20:00,70.9,68.1,29.88,South,173,3.0,3.0,91,0.00,,,0.00,Wunderground v.1.15,2013-09-19 07:20:00,
2013-09-19 02:23:00,70.9,68.1,29.87,South,182,3.0,3.0,91,0.00,,,0.00,Wunderground v.1.15,2013-09-19 07:23:00,
2013-09-19 02:26:00,70.8,68.0,29.88,South,182,2.0,3.0,91,0.00,,,0.00,Wunderground v.1.15,2013-09-19 07:26:00,
2013-09-19 02:29:00,70.8,68.0,29.88,South,182,2.0,3.0,91,0.00,,,0.00,Wunderground v.1.15,2013-09-19 07:29:00,
2013-09-19 02:30:00,70.8,68.0,29.88,South,182,2.0,2.0,91,0.00,,,0.00,Wunderground v.1.15,2013-09-19 07:30:00,
2013-09-19 02:31:00,70.8,68.0,29.88,South,182,2.0,2.0,91,0.00,,,0.00,Wunderground v.1.15,2013-09-19 07:31:00,
2013-09-19 02:33:00,70.7,68.3,29.87,South,182,2.0,3.0,92,0.00,,,0.00,Wunderground v.1.15,2013-09-19 07:33:00,
2013-09-19 02:35:00,70.7,68.3,29.87,South,182,2.0,3.0,92,0.00,,,0.00,Wunderground v.1.15,2013-09-19 07:35:00,
2013-09-19 02:36:00,70.7,68.3,29.87,South,178,2.0,3.0,92,0.00,,,0.00,Wunderground v.1.15,2013-09-19 07:36:00,
2013-09-19 02:38:00,70.7,68.3,29.87,South,178,3.0,4.0,92,0.00,,,0.00,Wunderground v.1.15,2013-09-19 07:38:00,
2013-09-19 02:40:00,70.7,68.3,29.87,South,177,2.0,5.0,92,0.00,,,0.00,Wunderground v.1.15,2013-09-19 07:40:00,
2013-09-19 02:42:00,70.7,68.3,29.87,South,179,2.0,5.0,92,0.00,,,0.00,Wunderground v.1.15,2013-09-19 07:42:00,
2013-09-19 02:45:00,70.7,68.3,29.87,South,179,3.0,5.0,92,0.00,,,0.00,Wunderground v.1.15,2013-09-19 07:45:00,
2013-09-19 02:47:00,70.7,68.3,29.87,South,179,3.0,6.0,92,0.00,,,0.00,Wunderground v.1.15,2013-09-19 07:47:00,
2013-09-19 02:49:00,70.7,68.3,29.87,South,178,3.0,6.0,92,0.00,,,0.00,Wunderground v.1.15,2013-09-19 07:49:00,
2013-09-19 02:53:00,70.7,68.3,29.86,South,179,3.0,3.0,92,0.00,,,0.00,Wunderground v.1.15,2013-09-19 07:53:00,
2013-09-19 02:54:00,70.7,68.3,29.86,South,179,3.0,4.0,92,0.00,,,0.00,Wunderground v.1.15,2013-09-19 07:54:00,
2013-09-19 02:56:00,70.7,68.3,29.86,South,178,3.0,4.0,92,0.00,,,0.00,Wunderground v.1.15,2013-09-19 07:56:00,
2013-09-19 02:57:00,70.7,68.3,29.86,South,178,3.0,4.0,92,0.00,,,0.00,Wunderground v.1.15,2013-09-19 07:57:00,
2013-09-19 02:59:00,70.7,68.3,29.86,South,178,3.0,4.0,92,0.00,,,0.00,Wunderground v.1.15,2013-09-19 07:59:00,
2013-09-19 03:00:00,70.7,68.3,29.86,South,178,3.0,4.0,92,0.00,,,0.00,Wunderground v.1.15,2013-09-19 08:00:00,
2013-09-19 03:05:00,70.8,68.4,29.86,South,178,3.0,4.0,92,0.00,,,0.00,Wunderground v.1.15,2013-09-19 08:05:00,
2013-09-19 03:07:00,70.8,68.0,29.86,South,178,3.0,4.0,91,0.00,,,0.00,Wunderground v.1.15,2013-09-19 08:07:00,
2013-09-19 03:08:00,70.8,68.0,29.86,South,178,3.0,4.0,91,0.00,,,0.00,Wunderground v.1.15,2013-09-19 08:08:00,
2013-09-19 03:10:00,70.8,68.0,29.86,South,178,2.0,2.0,91,0.00,,,0.00,Wunderground v.1.15,2013-09-19 08:10:00,
2013-09-19 03:12:00,70.8,68.0,29.86,South,178,2.0,3.0,91,0.00,,,0.00,Wunderground v.1.15,2013-09-19 08:12:00,
2013-09-19 03:14:00,70.8,68.0,29.86,South,177,3.0,5.0,91,0.00,,,0.00,Wunderground v.1.15,2013-09-19 08:14:00,
2013-09-19 03:15:00,70.9,68.1,29.86,SSE,159,3.0,5.0,91,0.00,,,0.00,Wunderground v.1.15,2013-09-19 08:15:00,
2013-09-19 03:17:00,70.9,68.1,29.86,SSE,159,3.0,5.0,91,0.00,,,0.00,Wunderground v.1.15,2013-09-19 08:17:00,
2013-09-19 03:18:00,70.9,68.1,29.86,South,178,3.0,5.0,91,0.00,,,0.00,Wunderground v.1.15,2013-09-19 08:18:00,
2013-09-19 03:20:00,71.0,68.2,29.86,South,178,3.0,3.0,91,0.00,,,0.00,Wunderground v.1.15,2013-09-19 08:20:00,
2013-09-19 03:23:00,71.0,68.2,29.86,South,178,2.0,4.0,91,0.00,,,0.00,Wunderground v.1.15,2013-09-19 08:23:00,
2013-09-19 03:25:00,71.1,68.3,29.86,South,178,2.0,4.0,91,0.00,,,0.01,Wunderground v.1.15,2013-09-19 08:25:00,
2013-09-19 03:26:00,71.1,68.3,29.86,South,178,2.0,5.0,91,0.88,,,0.04,Wunderground v.1.15,2013-09-19 08:26:00,
2013-09-19 03:27:00,71.1,68.3,29.85,South,178,3.0,5.0,91,0.59,,,0.04,Wunderground v.1.15,2013-09-19 08:27:00,
2013-09-19 03:29:00,71.1,68.7,29.85,South,169,3.0,5.0,92,0.22,,,0.04,Wunderground v.1.15,2013-09-19 08:29:00,
2013-09-19 03:32:00,71.1,68.7,29.85,SSE,168,3.0,6.0,92,1.72,,,0.07,Wunderground v.1.15,2013-09-19 08:32:00,
2013-09-19 03:34:00,71.0,68.6,29.85,South,181,3.0,7.0,92,2.06,,,0.12,Wunderground v.1.15,2013-09-19 08:34:00,
2013-09-19 03:37:00,70.9,68.8,29.85,South,169,4.0,9.0,93,0.30,,,0.15,Wunderground v.1.15,2013-09-19 08:37:00,
2013-09-19 03:39:00,70.9,68.8,29.85,South,184,4.0,9.0,93,0.15,,,0.15,Wunderground v.1.15,2013-09-19 08:39:00,
2013-09-19 03:40:00,70.9,68.8,29.86,South,183,4.0,4.0,93,0.12,,,0.15,Wunderground v.1.15,2013-09-19 08:40:00,
2013-09-19 03:43:00,70.9,68.8,29.86,South,183,4.0,5.0,93,0.07,,,0.15,Wunderground v.1.15,2013-09-19 08:43:00,
2013-09-19 03:45:00,70.8,68.7,29.86,South,183,4.0,5.0,93,0.06,,,0.15,Wunderground v.1.15,2013-09-19 08:45:00,
2013-09-19 03:46:00,70.8,68.7,29.86,South,183,3.0,5.0,93,0.05,,,0.15,Wunderground v.1.15,2013-09-19 08:46:00,
2013-09-19 03:49:00,70.8,68.7,29.86,South,181,2.0,5.0,93,0.04,,,0.15,Wunderground v.1.15,2013-09-19 08:49:00,
2013-09-19 03:52:00,70.7,68.6,29.86,South,181,2.0,3.0,93,0.00,,,0.15,Wunderground v.1.15,2013-09-19 08:52:00,
2013-09-19 03:53:00,70.6,68.5,29.86,South,181,2.0,3.0,93,0.00,,,0.15,Wunderground v.1.15,2013-09-19 08:53:00,
2013-09-19 03:54:00,70.7,68.6,29.86,South,181,2.0,3.0,93,0.00,,,0.15,Wunderground v.1.15,2013-09-19 08:54:00,
2013-09-19 03:56:00,70.6,68.5,29.86,South,181,2.0,3.0,93,0.00,,,0.15,Wunderground v.1.15,2013-09-19 08:56:00,
2013-09-19 03:57:00,70.6,68.5,29.86,South,181,2.0,3.0,93,0.00,,,0.15,Wunderground v.1.15,2013-09-19 08:57:00,
2013-09-19 03:58:00,70.6,68.5,29.86,South,184,2.0,3.0,93,0.00,,,0.15,Wunderground v.1.15,2013-09-19 08:58:00,
2013-09-19 04:00:00,70.5,68.4,29.86,South,184,2.0,3.0,93,0.00,,,0.15,Wunderground v.1.15,2013-09-19 09:00:00,
2013-09-19 04:03:00,70.5,68.7,29.86,South,184,2.0,3.0,94,0.00,,,0.15,Wunderground v.1.15,2013-09-19 09:03:00,
2013-09-19 04:06:00,70.4,68.6,29.86,South,183,2.0,3.0,94,0.00,,,0.15,Wunderground v.1.15,2013-09-19 09:06:00,
2013-09-19 04:07:00,70.4,68.6,29.86,South,183,2.0,3.0,94,0.00,,,0.15,Wunderground v.1.15,2013-09-19 09:07:00,
2013-09-19 04:09:00,70.4,68.6,29.86,South,184,2.0,3.0,94,0.00,,,0.15,Wunderground v.1.15,2013-09-19 09:09:00,
2013-09-19 04:11:00,70.4,68.6,29.86,South,184,2.0,2.0,94,0.00,,,0.15,Wunderground v.1.15,2013-09-19 09:11:00,
2013-09-19 04:14:00,70.4,68.6,29.86,South,179,2.0,4.0,94,0.00,,,0.15,Wunderground v.1.15,2013-09-19 09:14:00,
2013-09-19 04:15:00,70.4,68.6,29.85,South,180,2.0,4.0,94,0.00,,,0.15,Wunderground v.1.15,2013-09-19 09:15:00,
2013-09-19 04:16:00,70.4,68.6,29.86,South,180,3.0,4.0,94,0.00,,,0.15,Wunderground v.1.15,2013-09-19 09:16:00,
2013-09-19 04:17:00,70.4,68.6,29.85,South,180,2.0,4.0,94,0.00,,,0.15,Wunderground v.1.15,2013-09-19 09:17:00,
2013-09-19 04:19:00,70.3,68.5,29.85,South,180,3.0,4.0,94,0.00,,,0.15,Wunderground v.1.15,2013-09-19 09:19:00,
2013-09-19 04:20:00,70.3,68.5,29.85,South,180,3.0,3.0,94,0.00,,,0.15,Wunderground v.1.15,2013-09-19 09:20:00,
2013-09-19 04:23:00,70.3,68.5,29.85,South,180,3.0,4.0,94,0.00,,,0.15,Wunderground v.1.15,2013-09-19 09:23:00,
2013-09-19 04:24:00,70.3,68.5,29.85,South,180,2.0,4.0,94,0.00,,,0.15,Wunderground v.1.15,2013-09-19 09:24:00,
2013-09-19 04:25:00,70.3,68.5,29.85,South,180,2.0,4.0,94,0.00,,,0.15,Wunderground v.1.15,2013-09-19 09:25:00,
2013-09-19 04:28:00,70.3,68.5,29.85,South,180,2.0,4.0,94,0.00,,,0.15,Wunderground v.1.15,2013-09-19 09:28:00,
2013-09-19 04:29:00,70.3,68.5,29.85,South,180,2.0,4.0,94,0.00,,,0.15,Wunderground v.1.15,2013-09-19 09:29:00,
2013-09-19 04:31:00,70.2,68.4,29.85,South,181,2.0,2.0,94,0.00,,,0.15,Wunderground v.1.15,2013-09-19 09:31:00,
2013-09-19 04:32:00,70.2,68.4,29.85,South,181,2.0,4.0,94,0.00,,,0.15,Wunderground v.1.15,2013-09-19 09:32:00,
2013-09-19 04:35:00,70.2,68.4,29.85,South,181,3.0,4.0,94,0.00,,,0.15,Wunderground v.1.15,2013-09-19 09:35:00,
2013-09-19 04:37:00,70.2,68.4,29.85,South,181,3.0,4.0,94,0.00,,,0.15,Wunderground v.1.15,2013-09-19 09:37:00,
2013-09-19 04:40:00,70.2,68.4,29.84,South,182,3.0,5.0,94,0.00,,,0.15,Wunderground v.1.15,2013-09-19 09:40:00,
2013-09-19 04:42:00,70.1,68.3,29.84,South,181,3.0,5.0,94,0.00,,,0.15,Wunderground v.1.15,2013-09-19 09:42:00,
2013-09-19 04:44:00,70.1,68.3,29.84,South,180,3.0,5.0,94,0.00,,,0.15,Wunderground v.1.15,2013-09-19 09:44:00,
2013-09-19 04:45:00,70.1,68.3,29.84,South,180,3.0,5.0,94,0.00,,,0.15,Wunderground v.1.15,2013-09-19 09:45:00,
2013-09-19 04:47:00,70.1,68.3,29.84,South,180,3.0,5.0,94,0.00,,,0.15,Wunderground v.1.15,2013-09-19 09:47:00,
2013-09-19 04:49:00,70.1,68.3,29.84,South,180,3.0,5.0,94,0.00,,,0.15,Wunderground v.1.15,2013-09-19 09:49:00,
2013-09-19 04:50:00,70.1,68.3,29.84,South,180,3.0,4.0,94,0.00,,,0.15,Wunderground v.1.15,2013-09-19 09:50:00,
2013-09-19 04:51:00,70.1,68.3,29.84,South,179,3.0,4.0,94,0.00,,,0.15,Wunderground v.1.15,2013-09-19 09:51:00,
2013-09-19 04:55:00,70.0,68.2,29.84,South,179,3.0,4.0,94,0.00,,,0.15,Wunderground v.1.15,2013-09-19 09:55:00,
2013-09-19 04:56:00,70.0,68.2,29.84,South,180,3.0,4.0,94,0.00,,,0.15,Wunderground v.1.15,2013-09-19 09:56:00,
2013-09-19 04:57:00,70.0,68.2,29.84,South,180,3.0,4.0,94,0.00,,,0.15,Wunderground v.1.15,2013-09-19 09:57:00,
2013-09-19 04:59:00,70.0,68.2,29.84,South,190,3.0,5.0,94,0.00,,,0.15,Wunderground v.1.15,2013-09-19 09:59:00,
2013-09-19 05:00:00,70.0,68.2,29.84,South,190,3.0,4.0,94,0.00,,,0.15,Wunderground v.1.15,2013-09-19 10:00:00,
2013-09-19 05:03:00,70.0,68.2,29.84,South,189,4.0,4.0,94,0.00,,,0.15,Wunderground v.1.15,2013-09-19 10:03:00,
2013-09-19 05:04:00,70.0,68.2,29.84,South,188,3.0,7.0,94,0.00,,,0.15,Wunderground v.1.15,2013-09-19 10:04:00,
2013-09-19 05:05:00,70.1,68.3,29.84,South,190,4.0,7.0,94,0.00,,,0.15,Wunderground v.1.15,2013-09-19 10:05:00,
2013-09-19 05:06:00,70.1,68.3,29.84,South,190,4.0,7.0,94,0.00,,,0.15,Wunderground v.1.15,2013-09-19 10:06:00,
2013-09-19 05:07:00,70.1,68.3,29.84,South,190,4.0,7.0,94,0.00,,,0.15,Wunderground v.1.15,2013-09-19 10:07:00,
2013-09-19 05:11:00,70.1,68.3,29.84,SSW,192,3.0,9.0,94,0.00,,,0.15,Wunderground v.1.15,2013-09-19 10:11:00,
2013-09-19 05:12:00,70.0,68.2,29.84,SSW,192,3.0,9.0,94,0.00,,,0.15,Wunderground v.1.15,2013-09-19 10:12:00,
2013-09-19 05:14:00,70.0,68.2,29.84,SSW,192,3.0,9.0,94,0.00,,,0.15,Wunderground v.1.15,2013-09-19 10:14:00,
2013-09-19 05:16:00,70.0,68.2,29.84,South,190,3.0,9.0,94,0.00,,,0.15,Wunderground v.1.15,2013-09-19 10:16:00,
2013-09-19 05:17:00,70.0,68.2,29.84,South,190,3.0,9.0,94,0.00,,,0.15,Wunderground v.1.15,2013-09-19 10:17:00,
2013-09-19 05:20:00,70.0,68.2,29.84,South,190,3.0,5.0,94,0.00,,,0.15,Wunderground v.1.15,2013-09-19 10:20:00,
2013-09-19 05:23:00,70.0,68.2,29.84,SSW,192,3.0,5.0,94,0.00,,,0.15,Wunderground v.1.15,2013-09-19 10:23:00,
2013-09-19 05:25:00,70.0,68.2,29.84,SSW,192,3.0,5.0,94,0.00,,,0.15,Wunderground v.1.15,2013-09-19 10:25:00,
2013-09-19 05:26:00,69.9,68.1,29.84,SSW,192,3.0,5.0,94,0.00,,,0.15,Wunderground v.1.15,2013-09-19 10:26:00,
2013-09-19 05:30:00,69.9,68.1,29.84,SSW,192,3.0,3.0,94,0.00,,,0.15,Wunderground v.1.15,2013-09-19 10:30:00,
2013-09-19 05:31:00,69.9,68.1,29.84,SSW,192,3.0,3.0,94,0.00,,,0.15,Wunderground v.1.15,2013-09-19 10:31:00,
2013-09-19 05:34:00,69.9,68.1,29.84,SSW,192,2.0,4.0,94,0.00,,,0.15,Wunderground v.1.15,2013-09-19 10:34:00,
2013-09-19 05:36:00,69.8,68.0,29.84,South,188,2.0,4.0,94,0.00,,,0.15,Wunderground v.1.15,2013-09-19 10:36:00,
2013-09-19 05:37:00,69.8,68.0,29.84,South,188,2.0,4.0,94,0.00,,,0.15,Wunderground v.1.15,2013-09-19 10:37:00,
2013-09-19 05:38:00,69.8,68.0,29.84,South,188,2.0,4.0,94,0.00,,,0.15,Wunderground v.1.15,2013-09-19 10:38:00,
2013-09-19 05:41:00,69.8,68.0,29.83,South,188,1.0,2.0,94,0.00,,,0.15,Wunderground v.1.15,2013-09-19 10:41:00,
2013-09-19 05:42:00,69.7,67.9,29.83,South,173,1.0,3.0,94,0.00,,,0.15,Wunderground v.1.15,2013-09-19 10:42:00,
2013-09-19 05:43:00,69.7,67.9,29.84,South,173,2.0,3.0,94,0.00,,,0.15,Wunderground v.1.15,2013-09-19 10:43:00,
2013-09-19 05:46:00,69.7,67.9,29.83,South,175,2.0,3.0,94,0.00,,,0.15,Wunderground v.1.15,2013-09-19 10:46:00,
2013-09-19 05:48:00,69.6,67.8,29.83,South,175,2.0,3.0,94,0.00,,,0.15,Wunderground v.1.15,2013-09-19 10:48:00,
2013-09-19 05:49:00,69.6,67.8,29.83,South,175,2.0,3.0,94,0.00,,,0.15,Wunderground v.1.15,2013-09-19 10:49:00,
2013-09-19 05:53:00,69.6,67.8,29.83,South,175,2.0,3.0,94,0.00,,,0.15,Wunderground v.1.15,2013-09-19 10:53:00,
2013-09-19 05:55:00,69.5,67.7,29.84,South,175,2.0,3.0,94,0.00,,,0.15,Wunderground v.1.15,2013-09-19 10:55:00,
2013-09-19 05:56:00,69.5,67.7,29.84,South,175,2.0,3.0,94,0.00,,,0.15,Wunderground v.1.15,2013-09-19 10:56:00,
2013-09-19 06:00:00,69.5,67.7,29.84,South,175,1.0,3.0,94,0.00,,,0.15,Wunderground v.1.15,2013-09-19 11:00:00,
2013-09-19 06:01:00,69.5,67.7,29.84,South,175,2.0,3.0,94,0.00,,,0.15,Wunderground v.1.15,2013-09-19 11:01:00,
2013-09-19 06:04:00,69.4,67.6,29.84,South,175,2.0,3.0,94,0.00,,,0.15,Wunderground v.1.15,2013-09-19 11:04:00,
2013-09-19 06:05:00,69.4,67.6,29.84,South,175,2.0,3.0,94,0.00,,,0.15,Wunderground v.1.15,2013-09-19 11:05:00,
2013-09-19 06:06:00,69.4,67.6,29.84,South,175,2.0,3.0,94,0.00,,,0.15,Wunderground v.1.15,2013-09-19 11:06:00,
2013-09-19 06:07:00,69.4,67.6,29.84,South,175,2.0,3.0,94,0.00,,,0.15,Wunderground v.1.15,2013-09-19 11:07:00,
2013-09-19 06:08:00,69.4,67.6,29.84,South,175,2.0,3.0,94,0.00,,,0.15,Wunderground v.1.15,2013-09-19 11:08:00,
2013-09-19 06:12:00,69.3,67.5,29.84,South,174,2.0,5.0,94,0.00,,,0.15,Wunderground v.1.15,2013-09-19 11:12:00,
2013-09-19 06:13:00,69.4,67.6,29.85,South,172,2.0,5.0,94,0.00,,,0.15,Wunderground v.1.15,2013-09-19 11:13:00,
2013-09-19 06:15:00,69.4,67.6,29.85,South,171,3.0,5.0,94,0.00,,,0.15,Wunderground v.1.15,2013-09-19 11:15:00,
2013-09-19 06:16:00,69.4,67.6,29.85,South,171,3.0,5.0,94,0.00,,,0.15,Wunderground v.1.15,2013-09-19 11:16:00,
2013-09-19 06:21:00,69.4,67.6,29.85,South,173,3.0,3.0,94,0.00,,,0.15,Wunderground v.1.15,2013-09-19 11:21:00,
2013-09-19 06:22:00,69.4,67.6,29.85,South,173,3.0,3.0,94,0.00,,,0.15,Wunderground v.1.15,2013-09-19 11:22:00,
2013-09-19 06:23:00,69.4,67.6,29.85,South,172,3.0,4.0,94,0.00,,,0.15,Wunderground v.1.15,2013-09-19 11:23:00,
2013-09-19 06:24:00,69.4,67.6,29.85,South,173,3.0,4.0,94,0.00,,,0.15,Wunderground v.1.15,2013-09-19 11:24:00,
2013-09-19 06:26:00,69.4,67.6,29.85,South,173,3.0,4.0,94,0.00,,,0.15,Wunderground v.1.15,2013-09-19 11:26:00,
2013-09-19 06:27:00,69.4,67.6,29.85,South,173,3.0,4.0,94,0.00,,,0.15,Wunderground v.1.15,2013-09-19 11:27:00,
2013-09-19 06:28:00,69.4,67.6,29.85,South,173,3.0,4.0,94,0.00,,,0.15,Wunderground v.1.15,2013-09-19 11:28:00,
2013-09-19 06:32:00,69.4,67.6,29.85,South,173,3.0,4.0,94,0.00,,,0.15,Wunderground v.1.15,2013-09-19 11:32:00,
2013-09-19 06:33:00,69.4,67.6,29.85,South,173,3.0,4.0,94,0.00,,,0.15,Wunderground v.1.15,2013-09-19 11:33:00,
2013-09-19 06:36:00,69.4,67.6,29.85,South,173,3.0,4.0,94,0.00,,,0.15,Wunderground v.1.15,2013-09-19 11:36:00,
2013-09-19 06:38:00,69.4,67.6,29.85,South,173,3.0,4.0,94,0.00,,,0.15,Wunderground v.1.15,2013-09-19 11:38:00,
2013-09-19 06:40:00,69.4,67.6,29.85,South,173,3.0,3.0,94,0.00,,,0.15,Wunderground v.1.15,2013-09-19 11:40:00,
2013-09-19 06:41:00,69.5,67.7,29.85,South,173,2.0,3.0,94,0.00,,,0.15,Wunderground v.1.15,2013-09-19 11:41:00,
2013-09-19 06:44:00,69.5,67.7,29.85,South,173,2.0,3.0,94,0.00,,,0.15,Wunderground v.1.15,2013-09-19 11:44:00,
2013-09-19 06:46:00,69.5,67.7,29.85,South,177,2.0,7.0,94,0.00,,,0.15,Wunderground v.1.15,2013-09-19 11:46:00,
2013-09-19 06:48:00,69.5,67.7,29.85,South,178,2.0,7.0,94,0.00,,,0.15,Wunderground v.1.15,2013-09-19 11:48:00,
2013-09-19 06:50:00,69.5,67.7,29.85,South,178,3.0,3.0,94,0.00,,,0.15,Wunderground v.1.15,2013-09-19 11:50:00,
2013-09-19 06:52:00,69.5,67.7,29.85,South,178,3.0,4.0,94,0.00,,,0.15,Wunderground v.1.15,2013-09-19 11:52:00,
2013-09-19 06:54:00,69.5,67.7,29.85,South,178,3.0,4.0,94,0.00,,,0.15,Wunderground v.1.15,2013-09-19 11:54:00,
2013-09-19 06:57:00,69.5,67.7,29.85,South,180,3.0,4.0,94,0.00,,,0.15,Wunderground v.1.15,2013-09-19 11:57:00,
2013-09-19 06:58:00,69.4,67.6,29.85,South,180,3.0,4.0,94,0.00,,,0.15,Wunderground v.1.15,2013-09-19 11:58:00,
2013-09-19 07:00:00,69.4,67.6,29.85,South,182,3.0,3.0,94,0.00,,,0.15,Wunderground v.1.15,2013-09-19 12:00:00,
2013-09-19 07:02:00,69.4,67.3,29.85,South,182,3.0,3.0,93,0.00,,,0.15,Wunderground v.1.15,2013-09-19 12:02:00,
2013-09-19 07:07:00,69.5,67.4,29.85,South,169,3.0,4.0,93,0.00,,,0.15,Wunderground v.1.15,2013-09-19 12:07:00,
2013-09-19 07:08:00,69.5,67.4,29.85,South,170,3.0,4.0,93,0.00,,,0.15,Wunderground v.1.15,2013-09-19 12:08:00,
2013-09-19 07:09:00,69.5,67.4,29.85,South,170,3.0,4.0,93,0.00,,,0.15,Wunderground v.1.15,2013-09-19 12:09:00,
2013-09-19 07:13:00,69.4,67.3,29.85,South,172,3.0,4.0,93,0.00,,,0.15,Wunderground v.1.15,2013-09-19 12:13:00,
2013-09-19 07:15:00,69.4,67.3,29.85,South,173,3.0,4.0,93,0.00,,,0.15,Wunderground v.1.15,2013-09-19 12:15:00,
2013-09-19 07:16:00,69.4,67.3,29.85,South,173,3.0,4.0,93,0.00,,,0.15,Wunderground v.1.15,2013-09-19 12:16:00,
2013-09-19 07:19:00,69.4,67.3,29.85,South,188,3.0,4.0,93,0.00,,,0.15,Wunderground v.1.15,2013-09-19 12:19:00,
2013-09-19 07:20:00,69.4,67.3,29.85,South,188,3.0,4.0,93,0.00,,,0.15,Wunderground v.1.15,2013-09-19 12:20:00,
2013-09-19 07:22:00,69.4,67.3,29.85,South,188,3.0,4.0,93,0.00,,,0.15,Wunderground v.1.15,2013-09-19 12:22:00,
2013-09-19 07:25:00,69.4,67.3,29.85,South,188,2.0,4.0,93,0.00,,,0.15,Wunderground v.1.15,2013-09-19 12:25:00,
2013-09-19 07:28:00,69.3,67.2,29.85,South,187,3.0,4.0,93,0.00,,,0.15,Wunderground v.1.15,2013-09-19 12:28:00,
2013-09-19 07:29:00,69.4,67.3,29.85,South,187,2.0,4.0,93,0.00,,,0.15,Wunderground v.1.15,2013-09-19 12:29:00,
2013-09-19 07:30:00,69.3,67.2,29.85,South,187,2.0,2.0,93,0.00,,,0.15,Wunderground v.1.15,2013-09-19 12:30:00,
2013-09-19 07:34:00,69.3,67.2,29.85,South,187,2.0,2.0,93,0.00,,,0.15,Wunderground v.1.15,2013-09-19 12:34:00,
2013-09-19 07:36:00,69.3,67.2,29.85,South,187,2.0,2.0,93,0.00,,,0.15,Wunderground v.1.15,2013-09-19 12:36:00,
2013-09-19 07:38:00,69.3,67.2,29.85,South,187,1.0,2.0,93,0.00,,,0.15,Wunderground v.1.15,2013-09-19 12:38:00,
2013-09-19 07:39:00,69.3,67.2,29.85,South,187,1.0,2.0,93,0.00,,,0.15,Wunderground v.1.15,2013-09-19 12:39:00,
2013-09-19 07:41:00,69.3,67.2,29.85,South,187,1.0,1.0,93,0.00,,,0.15,Wunderground v.1.15,2013-09-19 12:41:00,
2013-09-19 07:47:00,69.4,67.3,29.85,South,187,1.0,1.0,93,0.00,,,0.15,Wunderground v.1.15,2013-09-19 12:47:00,
2013-09-19 07:48:00,69.4,67.3,29.85,South,187,1.0,1.0,93,0.00,,,0.15,Wunderground v.1.15,2013-09-19 12:48:00,
2013-09-19 07:52:00,69.4,67.3,29.85,South,187,1.0,3.0,93,0.00,,,0.15,Wunderground v.1.15,2013-09-19 12:52:00,
2013-09-19 07:53:00,69.4,67.3,29.85,South,187,1.0,3.0,93,0.00,,,0.15,Wunderground v.1.15,2013-09-19 12:53:00,
2013-09-19 07:54:00,69.4,67.3,29.85,South,187,1.0,3.0,93,0.00,,,0.15,Wunderground v.1.15,2013-09-19 12:54:00,
2013-09-19 07:55:00,69.4,67.3,29.85,South,187,1.0,3.0,93,0.00,,,0.15,Wunderground v.1.15,2013-09-19 12:55:00,
2013-09-19 07:57:00,69.4,67.3,29.86,South,187,1.0,3.0,93,0.00,,,0.15,Wunderground v.1.15,2013-09-19 12:57:00,
2013-09-19 07:58:00,69.4,67.3,29.85,South,187,1.0,3.0,93,0.00,,,0.15,Wunderground v.1.15,2013-09-19 12:58:00,
2013-09-19 08:00:00,69.4,67.3,29.85,South,187,1.0,1.0,93,0.00,,,0.15,Wunderground v.1.15,2013-09-19 13:00:00,
2013-09-19 08:01:00,69.4,67.3,29.85,South,187,1.0,1.0,93,0.00,,,0.15,Wunderground v.1.15,2013-09-19 13:01:00,
2013-09-19 08:05:00,69.5,67.7,29.86,South,187,1.0,1.0,94,0.00,,,0.15,Wunderground v.1.15,2013-09-19 13:05:00,
2013-09-19 08:06:00,69.6,67.8,29.86,South,187,0.0,1.0,94,0.00,,,0.15,Wunderground v.1.15,2013-09-19 13:06:00,
2013-09-19 08:07:00,69.6,67.8,29.86,South,187,0.0,1.0,94,0.00,,,0.15,Wunderground v.1.15,2013-09-19 13:07:00,
2013-09-19 08:09:00,69.7,67.9,29.86,South,187,0.0,1.0,94,0.00,,,0.15,Wunderground v.1.15,2013-09-19 13:09:00,
2013-09-19 08:10:00,69.7,67.6,29.86,South,187,0.0,0.0,93,0.00,,,0.15,Wunderground v.1.15,2013-09-19 13:10:00,
2013-09-19 08:12:00,69.7,67.6,29.86,South,187,0.0,0.0,93,0.00,,,0.15,Wunderground v.1.15,2013-09-19 13:12:00,
2013-09-19 08:13:00,69.8,67.7,29.86,South,187,0.0,0.0,93,0.00,,,0.15,Wunderground v.1.15,2013-09-19 13:13:00,
2013-09-19 08:14:00,69.8,67.7,29.86,South,187,0.0,0.0,93,0.00,,,0.15,Wunderground v.1.15,2013-09-19 13:14:00,
2013-09-19 08:16:00,69.9,67.8,29.86,South,187,0.0,0.0,93,0.00,,,0.15,Wunderground v.1.15,2013-09-19 13:16:00,
2013-09-19 08:18:00,69.9,67.8,29.86,South,187,0.0,0.0,93,0.00,,,0.15,Wunderground v.1.15,2013-09-19 13:18:00,
2013-09-19 08:20:00,70.0,67.9,29.86,South,187,0.0,0.0,93,0.00,,,0.15,Wunderground v.1.15,2013-09-19 13:20:00,
2013-09-19 08:21:00,70.0,68.2,29.86,South,187,0.0,0.0,94,0.00,,,0.15,Wunderground v.1.15,2013-09-19 13:21:00,
2013-09-19 08:23:00,70.1,68.3,29.86,South,187,0.0,0.0,94,0.00,,,0.15,Wunderground v.1.15,2013-09-19 13:23:00,
2013-09-19 08:25:00,70.1,68.3,29.86,South,187,0.0,0.0,94,0.00,,,0.15,Wunderground v.1.15,2013-09-19 13:25:00,
2013-09-19 08:26:00,70.2,68.4,29.86,South,187,0.0,0.0,94,0.00,,,0.15,Wunderground v.1.15,2013-09-19 13:26:00,
2013-09-19 08:29:00,70.3,68.5,29.86,South,187,0.0,0.0,94,0.00,,,0.15,Wunderground v.1.15,2013-09-19 13:29:00,
2013-09-19 08:30:00,70.3,68.5,29.86,South,187,0.0,0.0,94,0.00,,,0.15,Wunderground v.1.15,2013-09-19 13:30:00,
2013-09-19 08:35:00,70.6,68.8,29.86,South,187,0.0,0.0,94,0.00,,,0.15,Wunderground v.1.15,2013-09-19 13:35:00,
2013-09-19 08:36:00,70.7,68.9,29.86,South,187,0.0,0.0,94,0.00,,,0.15,Wunderground v.1.15,2013-09-19 13:36:00,
2013-09-19 08:40:00,71.0,68.9,29.86,South,187,0.0,0.0,93,0.00,,,0.15,Wunderground v.1.15,2013-09-19 13:40:00,
2013-09-19 08:41:00,71.0,68.9,29.86,South,187,0.0,0.0,93,0.00,,,0.15,Wunderground v.1.15,2013-09-19 13:41:00,
2013-09-19 08:43:00,71.2,69.1,29.86,South,187,0.0,0.0,93,0.00,,,0.15,Wunderground v.1.15,2013-09-19 13:43:00,
2013-09-19 08:45:00,71.3,69.5,29.86,South,187,0.0,0.0,94,0.00,,,0.15,Wunderground v.1.15,2013-09-19 13:45:00,
2013-09-19 08:46:00,71.5,69.7,29.86,South,187,0.0,0.0,94,0.00,,,0.15,Wunderground v.1.15,2013-09-19 13:46:00,
2013-09-19 08:48:00,71.7,69.9,29.86,South,188,1.0,3.0,94,0.00,,,0.15,Wunderground v.1.15,2013-09-19 13:48:00,
2013-09-19 08:50:00,71.9,69.8,29.86,South,188,1.0,1.0,93,0.00,,,0.15,Wunderground v.1.15,2013-09-19 13:50:00,
2013-09-19 08:51:00,72.0,69.9,29.86,South,178,1.0,4.0,93,0.00,,,0.15,Wunderground v.1.15,2013-09-19 13:51:00,
2013-09-19 08:52:00,72.0,69.9,29.86,South,178,1.0,4.0,93,0.00,,,0.15,Wunderground v.1.15,2013-09-19 13:52:00,
2013-09-19 08:53:00,72.1,70.0,29.86,South,178,2.0,4.0,93,0.00,,,0.15,Wunderground v.1.15,2013-09-19 13:53:00,
2013-09-19 08:57:00,72.4,69.6,29.85,South,179,3.0,4.0,91,0.00,,,0.15,Wunderground v.1.15,2013-09-19 13:57:00,
2013-09-19 08:58:00,72.5,69.7,29.85,South,180,3.0,4.0,91,0.00,,,0.15,Wunderground v.1.15,2013-09-19 13:58:00,
2013-09-19 08:59:00,72.6,69.8,29.86,South,179,3.0,4.0,91,0.00,,,0.15,Wunderground v.1.15,2013-09-19 13:59:00,
2013-09-19 09:00:00,72.6,69.8,29.85,South,179,2.0,2.0,91,0.00,,,0.15,Wunderground v.1.15,2013-09-19 14:00:00,
2013-09-19 09:04:00,73.1,70.3,29.85,South,179,2.0,3.0,91,0.00,,,0.15,Wunderground v.1.15,2013-09-19 14:04:00,
2013-09-19 09:05:00,73.2,70.4,29.85,South,179,2.0,5.0,91,0.00,,,0.15,Wunderground v.1.15,2013-09-19 14:05:00,
2013-09-19 09:06:00,73.4,70.3,29.85,South,181,2.0,5.0,90,0.00,,,0.15,Wunderground v.1.15,2013-09-19 14:06:00,
2013-09-19 09:07:00,73.5,70.4,29.85,South,188,2.0,5.0,90,0.00,,,0.15,Wunderground v.1.15,2013-09-19 14:07:00,
2013-09-19 09:12:00,74.0,70.2,29.85,South,188,3.0,5.0,88,0.00,,,0.15,Wunderground v.1.15,2013-09-19 14:12:00,
2013-09-19 09:14:00,74.1,70.3,29.85,South,190,3.0,5.0,88,0.00,,,0.15,Wunderground v.1.15,2013-09-19 14:14:00,
2013-09-19 09:15:00,74.2,70.4,29.85,South,190,3.0,5.0,88,0.00,,,0.15,Wunderground v.1.15,2013-09-19 14:15:00,
2013-09-19 09:16:00,74.3,70.5,29.85,South,190,3.0,5.0,88,0.00,,,0.15,Wunderground v.1.15,2013-09-19 14:16:00,
2013-09-19 09:18:00,74.3,70.5,29.85,South,190,2.0,5.0,88,0.00,,,0.15,Wunderground v.1.15,2013-09-19 14:18:00,
2013-09-19 09:20:00,74.4,70.3,29.84,South,189,3.0,4.0,87,0.00,,,0.15,Wunderground v.1.15,2013-09-19 14:20:00,
2013-09-19 09:22:00,74.5,70.4,29.85,SSW,192,3.0,5.0,87,0.00,,,0.15,Wunderground v.1.15,2013-09-19 14:22:00,
2013-09-19 09:24:00,74.7,70.6,29.85,SSW,202,3.0,5.0,87,0.00,,,0.15,Wunderground v.1.15,2013-09-19 14:24:00,
2013-09-19 09:25:00,74.8,70.7,29.85,SSW,211,3.0,5.0,87,0.00,,,0.15,Wunderground v.1.15,2013-09-19 14:25:00,
2013-09-19 09:28:00,75.1,70.6,29.85,South,187,4.0,6.0,86,0.00,,,0.15,Wunderground v.1.15,2013-09-19 14:28:00,
2013-09-19 09:32:00,75.7,70.9,29.85,SSW,194,4.0,6.0,85,0.00,,,0.15,Wunderground v.1.15,2013-09-19 14:32:00,
2013-09-19 09:33:00,75.8,71.0,29.85,South,191,4.0,6.0,85,0.00,,,0.15,Wunderground v.1.15,2013-09-19 14:33:00,
2013-09-19 09:34:00,75.9,71.1,29.85,South,184,4.0,6.0,85,0.00,,,0.15,Wunderground v.1.15,2013-09-19 14:34:00,
2013-09-19 09:36:00,76.3,71.1,29.85,South,184,4.0,6.0,84,0.00,,,0.15,Wunderground v.1.15,2013-09-19 14:36:00,
2013-09-19 09:40:00,76.7,71.5,29.85,South,185,4.0,5.0,84,0.00,,,0.15,Wunderground v.1.15,2013-09-19 14:40:00,
2013-09-19 09:43:00,77.1,71.2,29.85,SW,235,4.0,6.0,82,0.00,,,0.15,Wunderground v.1.15,2013-09-19 14:43:00,
2013-09-19 09:44:00,77.2,71.3,29.85,South,181,4.0,9.0,82,0.00,,,0.15,Wunderground v.1.15,2013-09-19 14:44:00,
2013-09-19 09:46:00,77.5,71.2,29.85,SSW,192,5.0,10.0,81,0.00,,,0.15,Wunderground v.1.15,2013-09-19 14:46:00,
2013-09-19 09:47:00,77.5,71.2,29.85,SSW,205,5.0,10.0,81,0.00,,,0.15,Wunderground v.1.15,2013-09-19 14:47:00,
2013-09-19 09:49:00,77.7,71.0,29.85,WSW,255,5.0,10.0,80,0.00,,,0.15,Wunderground v.1.15,2013-09-19 14:49:00,
2013-09-19 09:52:00,78.0,71.0,29.85,South,186,6.0,8.0,79,0.00,,,0.15,Wunderground v.1.15,2013-09-19 14:52:00,
2013-09-19 09:53:00,78.0,71.0,29.85,South,186,6.0,8.0,79,0.00,,,0.15,Wunderground v.1.15,2013-09-19 14:53:00,
2013-09-19 09:56:00,78.4,71.7,29.85,SSW,196,6.0,10.0,80,0.00,,,0.15,Wunderground v.1.15,2013-09-19 14:56:00,
2013-09-19 09:57:00,78.4,71.3,29.85,South,180,6.0,10.0,79,0.00,,,0.15,Wunderground v.1.15,2013-09-19 14:57:00,
2013-09-19 09:59:00,78.6,71.5,29.85,South,181,5.0,10.0,79,0.00,,,0.15,Wunderground v.1.15,2013-09-19 14:59:00,
2013-09-19 10:03:00,79.0,71.6,29.85,WSW,242,5.0,13.0,78,0.00,,,0.15,Wunderground v.1.15,2013-09-19 15:03:00,
2013-09-19 10:05:00,79.1,71.3,29.85,SSW,208,5.0,13.0,77,0.00,,,0.15,Wunderground v.1.15,2013-09-19 15:05:00,
2013-09-19 10:06:00,79.2,71.4,29.84,SW,234,6.0,13.0,77,0.00,,,0.15,Wunderground v.1.15,2013-09-19 15:06:00,
2013-09-19 10:08:00,79.3,71.5,29.85,SSW,194,6.0,13.0,77,0.00,,,0.15,Wunderground v.1.15,2013-09-19 15:08:00,
2013-09-19 10:11:00,79.6,71.8,29.85,SSW,207,6.0,9.0,77,0.00,,,0.15,Wunderground v.1.15,2013-09-19 15:11:00,
2013-09-19 10:12:00,79.6,71.8,29.85,WSW,238,7.0,9.0,77,0.00,,,0.15,Wunderground v.1.15,2013-09-19 15:12:00,
2013-09-19 10:15:00,79.8,71.2,29.85,South,188,7.0,12.0,75,0.00,,,0.15,Wunderground v.1.15,2013-09-19 15:15:00,
2013-09-19 10:16:00,79.9,71.7,29.85,South,176,7.0,12.0,76,0.00,,,0.15,Wunderground v.1.15,2013-09-19 15:16:00,
2013-09-19 10:21:00,80.2,71.6,29.85,South,180,7.0,9.0,75,0.00,,,0.15,Wunderground v.1.15,2013-09-19 15:21:00,
2013-09-19 10:22:00,80.3,71.6,29.84,South,171,7.0,9.0,75,0.00,,,0.15,Wunderground v.1.15,2013-09-19 15:22:00,
2013-09-19 10:23:00,80.3,71.3,29.85,South,186,7.0,9.0,74,0.00,,,0.15,Wunderground v.1.15,2013-09-19 15:23:00,
2013-09-19 10:27:00,80.5,71.4,29.84,South,186,7.0,12.0,74,0.00,,,0.15,Wunderground v.1.15,2013-09-19 15:27:00,
2013-09-19 10:29:00,80.6,71.5,29.84,South,188,7.0,12.0,74,0.00,,,0.15,Wunderground v.1.15,2013-09-19 15:29:00,
2013-09-19 10:31:00,80.8,72.1,29.84,SSW,192,7.0,7.0,75,0.00,,,0.15,Wunderground v.1.15,2013-09-19 15:31:00,
2013-09-19 10:33:00,81.0,71.9,29.84,South,182,7.0,10.0,74,0.00,,,0.15,Wunderground v.1.15,2013-09-19 15:33:00,
2013-09-19 10:34:00,81.1,72.0,29.84,SSW,201,6.0,10.0,74,0.00,,,0.15,Wunderground v.1.15,2013-09-19 15:34:00,
2013-09-19 10:35:00,81.1,71.6,29.84,South,170,6.0,10.0,73,0.00,,,0.15,Wunderground v.1.15,2013-09-19 15:35:00,
2013-09-19 10:36:00,81.1,71.6,29.84,SSW,196,7.0,10.0,73,0.00,,,0.15,Wunderground v.1.15,2013-09-19 15:36:00,
2013-09-19 10:39:00,81.2,72.1,29.84,SSW,194,7.0,10.0,74,0.00,,,0.15,Wunderground v.1.15,2013-09-19 15:39:00,
2013-09-19 10:41:00,81.4,71.5,29.84,SSW,195,8.0,12.0,72,0.00,,,0.15,Wunderground v.1.15,2013-09-19 15:41:00,
2013-09-19 10:44:00,81.5,72.0,29.84,SSW,196,7.0,12.0,73,0.00,,,0.15,Wunderground v.1.15,2013-09-19 15:44:00,
2013-09-19 10:45:00,81.6,72.1,29.84,SSW,208,6.0,12.0,73,0.00,,,0.15,Wunderground v.1.15,2013-09-19 15:45:00,
2013-09-19 10:46:00,81.7,72.2,29.84,WSW,247,6.0,12.0,73,0.00,,,0.15,Wunderground v.1.15,2013-09-19 15:46:00,
2013-09-19 10:47:00,81.8,72.3,29.84,South,190,6.0,13.0,73,0.00,,,0.15,Wunderground v.1.15,2013-09-19 15:47:00,
2013-09-19 10:50:00,81.9,72.4,29.84,SW,223,6.0,7.0,73,0.00,,,0.15,Wunderground v.1.15,2013-09-19 15:50:00,
2013-09-19 10:51:00,82.1,72.2,29.84,SSW,192,5.0,7.0,72,0.00,,,0.15,Wunderground v.1.15,2013-09-19 15:51:00,
2013-09-19 10:52:00,82.1,72.2,29.84,WSW,244,5.0,7.0,72,0.00,,,0.15,Wunderground v.1.15,2013-09-19 15:52:00,
2013-09-19 10:53:00,82.3,72.4,29.84,South,171,5.0,7.0,72,0.00,,,0.15,Wunderground v.1.15,2013-09-19 15:53:00,
2013-09-19 10:56:00,82.5,72.1,29.84,SSW,205,6.0,11.0,71,0.00,,,0.15,Wunderground v.1.15,2013-09-19 15:56:00,
2013-09-19 10:58:00,82.5,72.1,29.84,South,172,5.0,11.0,71,0.00,,,0.15,Wunderground v.1.15,2013-09-19 15:58:00,
2013-09-19 10:59:00,82.5,72.1,29.84,WSW,249,5.0,11.0,71,0.00,,,0.15,Wunderground v.1.15,2013-09-19 15:59:00,
2013-09-19 11:01:00,82.5,72.1,29.84,South,175,5.0,7.0,71,0.00,,,0.15,Wunderground v.1.15,2013-09-19 16:01:00,
2013-09-19 11:03:00,82.6,72.2,29.84,South,176,6.0,7.0,71,0.00,,,0.15,Wunderground v.1.15,2013-09-19 16:03:00,
2013-09-19 11:04:00,82.6,71.8,29.84,SSW,207,6.0,7.0,70,0.00,,,0.15,Wunderground v.1.15,2013-09-19 16:04:00,
2013-09-19 11:09:00,82.4,72.0,29.84,SSE,165,6.0,12.0,71,0.00,,,0.15,Wunderground v.1.15,2013-09-19 16:09:00,
2013-09-19 11:10:00,82.4,72.0,29.84,South,173,6.0,6.0,71,0.00,,,0.15,Wunderground v.1.15,2013-09-19 16:10:00,
2013-09-19 11:11:00,82.4,71.6,29.84,South,189,6.0,6.0,70,0.00,,,0.15,Wunderground v.1.15,2013-09-19 16:11:00,
2013-09-19 11:12:00,82.4,72.0,29.84,WSW,251,6.0,7.0,71,0.00,,,0.15,Wunderground v.1.15,2013-09-19 16:12:00,
2013-09-19 11:16:00,82.7,71.9,29.84,South,174,5.0,13.0,70,0.00,,,0.15,Wunderground v.1.15,2013-09-19 16:16:00,
2013-09-19 11:17:00,82.8,72.0,29.84,South,189,5.0,13.0,70,0.00,,,0.15,Wunderground v.1.15,2013-09-19 16:17:00,
2013-09-19 11:18:00,82.9,72.1,29.84,WSW,255,5.0,13.0,70,0.00,,,0.15,Wunderground v.1.15,2013-09-19 16:18:00,
2013-09-19 11:20:00,83.2,72.4,29.84,SSW,205,5.0,9.0,70,0.00,,,0.15,Wunderground v.1.15,2013-09-19 16:20:00,
2013-09-19 11:22:00,83.3,72.1,29.84,SSW,198,6.0,9.0,69,0.00,,,0.15,Wunderground v.1.15,2013-09-19 16:22:00,
2013-09-19 11:24:00,83.6,72.3,29.84,South,182,6.0,12.0,69,0.00,,,0.15,Wunderground v.1.15,2013-09-19 16:24:00,
2013-09-19 11:26:00,83.9,72.2,29.84,SW,223,6.0,12.0,68,0.00,,,0.15,Wunderground v.1.15,2013-09-19 16:26:00,
2013-09-19 11:28:00,84.0,72.3,29.84,SSW,197,6.0,12.0,68,0.00,,,0.15,Wunderground v.1.15,2013-09-19 16:28:00,
2013-09-19 11:31:00,84.4,73.1,29.84,SSE,167,5.0,10.0,69,0.00,,,0.15,Wunderground v.1.15,2013-09-19 16:31:00,
2013-09-19 11:32:00,84.5,72.3,29.84,SSE,165,5.0,10.0,67,0.00,,,0.15,Wunderground v.1.15,2013-09-19 16:32:00,
2013-09-19 11:37:00,84.9,72.3,29.84,SSW,204,6.0,14.0,66,0.00,,,0.15,Wunderground v.1.15,2013-09-19 16:37:00,
2013-09-19 11:38:00,85.0,72.4,29.84,South,189,6.0,14.0,66,0.00,,,0.15,Wunderground v.1.15,2013-09-19 16:38:00,
2013-09-19 11:40:00,85.1,72.5,29.84,SSW,194,7.0,7.0,66,0.00,,,0.15,Wunderground v.1.15,2013-09-19 16:40:00,
2013-09-19 11:42:00,85.2,72.6,29.84,WSW,247,7.0,9.0,66,0.00,,,0.15,Wunderground v.1.15,2013-09-19 16:42:00,
2013-09-19 11:44:00,85.3,72.2,29.83,SSW,194,7.0,11.0,65,0.00,,,0.15,Wunderground v.1.15,2013-09-19 16:44:00,
2013-09-19 11:46:00,85.3,72.2,29.83,SSW,192,8.0,11.0,65,0.00,,,0.15,Wunderground v.1.15,2013-09-19 16:46:00,
2013-09-19 11:47:00,85.4,72.3,29.83,SW,216,8.0,11.0,65,0.00,,,0.15,Wunderground v.1.15,2013-09-19 16:47:00,
2013-09-19 11:48:00,85.4,73.2,29.83,SSE,164,7.0,11.0,67,0.00,,,0.15,Wunderground v.1.15,2013-09-19 16:48:00,
2013-09-19 11:50:00,85.5,71.9,29.83,SSW,194,7.0,7.0,64,0.00,,,0.15,Wunderground v.1.15,2013-09-19 16:50:00,
2013-09-19 11:52:00,85.7,71.7,29.83,South,186,7.0,15.0,63,0.00,,,0.15,Wunderground v.1.15,2013-09-19 16:52:00,
2013-09-19 11:54:00,85.7,71.7,29.83,SSW,200,7.0,15.0,63,0.00,,,0.15,Wunderground v.1.15,2013-09-19 16:54:00,
2013-09-19 11:58:00,85.8,72.2,29.83,South,191,8.0,15.0,64,0.00,,,0.15,Wunderground v.1.15,2013-09-19 16:58:00,
2013-09-19 11:59:00,85.8,71.7,29.83,South,191,8.0,15.0,63,0.00,,,0.15,Wunderground v.1.15,2013-09-19 16:59:00,
2013-09-19 12:01:00,85.9,72.8,29.83,SSE,164,8.0,10.0,65,0.00,,,0.15,Wunderground v.1.15,2013-09-19 17:01:00,
2013-09-19 12:02:00,85.9,72.8,29.83,SSE,155,8.0,10.0,65,0.00,,,0.15,Wunderground v.1.15,2013-09-19 17:02:00,
2013-09-19 12:03:00,86.0,71.9,29.83,South,184,8.0,10.0,63,0.00,,,0.15,Wunderground v.1.15,2013-09-19 17:03:00,
2013-09-19 12:08:00,86.5,72.4,29.82,South,178,6.0,11.0,63,0.00,,,0.15,Wunderground v.1.15,2013-09-19 17:08:00,
2013-09-19 12:09:00,86.6,72.5,29.82,SSW,204,6.0,15.0,63,0.00,,,0.15,Wunderground v.1.15,2013-09-19 17:09:00,
2013-09-19 12:11:00,86.8,72.2,29.82,South,184,7.0,16.0,62,0.00,,,0.15,Wunderground v.1.15,2013-09-19 17:11:00,
2013-09-19 12:14:00,86.9,72.3,29.82,SSW,194,8.0,16.0,62,0.00,,,0.15,Wunderground v.1.15,2013-09-19 17:14:00,
2013-09-19 12:15:00,86.9,71.8,29.82,South,186,8.0,16.0,61,0.00,,,0.15,Wunderground v.1.15,2013-09-19 17:15:00,
2013-09-19 12:17:00,86.9,71.8,29.82,SSW,197,8.0,16.0,61,0.00,,,0.15,Wunderground v.1.15,2013-09-19 17:17:00,
2013-09-19 12:18:00,87.0,72.4,29.82,SW,230,8.0,16.0,62,0.00,,,0.15,Wunderground v.1.15,2013-09-19 17:18:00,
2013-09-19 12:19:00,87.0,73.3,29.82,SSE,161,8.0,16.0,64,0.00,,,0.15,Wunderground v.1.15,2013-09-19 17:19:00,
2013-09-19 12:20:00,87.1,72.5,29.82,SSW,213,8.0,8.0,62,0.00,,,0.15,Wunderground v.1.15,2013-09-19 17:20:00,
2013-09-19 12:23:00,87.2,72.6,29.82,SSW,192,6.0,8.0,62,0.00,,,0.15,Wunderground v.1.15,2013-09-19 17:23:00,
2013-09-19 12:24:00,87.3,72.2,29.82,South,184,6.0,8.0,61,0.00,,,0.15,Wunderground v.1.15,2013-09-19 17:24:00,
2013-09-19 12:25:00,87.3,72.7,29.82,South,173,6.0,8.0,62,0.00,,,0.15,Wunderground v.1.15,2013-09-19 17:25:00,
2013-09-19 12:29:00,87.5,72.9,29.82,SSW,196,6.0,11.0,62,0.00,,,0.15,Wunderground v.1.15,2013-09-19 17:29:00,
2013-09-19 12:30:00,87.6,72.5,29.81,SSW,195,6.0,6.0,61,0.00,,,0.15,Wunderground v.1.15,2013-09-19 17:30:00,
2013-09-19 12:31:00,87.7,72.6,29.81,South,183,6.0,6.0,61,0.00,,,0.15,Wunderground v.1.15,2013-09-19 17:31:00,
2013-09-19 12:32:00,87.7,72.6,29.81,South,190,6.0,6.0,61,0.00,,,0.15,Wunderground v.1.15,2013-09-19 17:32:00,
2013-09-19 12:34:00,87.7,72.1,29.81,SW,219,6.0,9.0,60,0.00,,,0.15,Wunderground v.1.15,2013-09-19 17:34:00,
2013-09-19 12:37:00,87.9,72.8,29.81,South,181,6.0,11.0,61,0.00,,,0.15,Wunderground v.1.15,2013-09-19 17:37:00,
2013-09-19 12:38:00,87.9,72.3,29.82,WSW,240,7.0,11.0,60,0.00,,,0.15,Wunderground v.1.15,2013-09-19 17:38:00,
2013-09-19 12:39:00,88.0,72.9,29.81,SW,223,6.0,11.0,61,0.00,,,0.15,Wunderground v.1.15,2013-09-19 17:39:00,
2013-09-19 12:42:00,88.1,72.5,29.81,South,190,7.0,10.0,60,0.00,,,0.15,Wunderground v.1.15,2013-09-19 17:42:00,
2013-09-19 12:44:00,88.2,72.6,29.81,SW,236,7.0,10.0,60,0.00,,,0.15,Wunderground v.1.15,2013-09-19 17:44:00,
2013-09-19 12:45:00,88.2,72.6,29.81,South,188,7.0,10.0,60,0.00,,,0.15,Wunderground v.1.15,2013-09-19 17:45:00,
2013-09-19 12:46:00,88.2,73.0,29.81,South,177,7.0,10.0,61,0.00,,,0.15,Wunderground v.1.15,2013-09-19 17:46:00,
2013-09-19 12:47:00,88.2,73.0,29.81,SSE,153,8.0,10.0,61,0.00,,,0.15,Wunderground v.1.15,2013-09-19 17:47:00,
2013-09-19 12:51:00,88.3,72.2,29.81,South,188,8.0,10.0,59,0.00,,,0.15,Wunderground v.1.15,2013-09-19 17:51:00,
2013-09-19 12:52:00,88.3,72.2,29.81,South,171,8.0,10.0,59,0.00,,,0.15,Wunderground v.1.15,2013-09-19 17:52:00,
2013-09-19 12:53:00,88.3,72.2,29.81,SSW,205,8.0,10.0,59,0.00,,,0.15,Wunderground v.1.15,2013-09-19 17:53:00,
2013-09-19 12:54:00,88.3,72.2,29.81,SSW,198,8.0,10.0,59,0.00,,,0.15,Wunderground v.1.15,2013-09-19 17:54:00,
2013-09-19 12:58:00,88.4,72.2,29.81,SSE,164,7.0,11.0,59,0.00,,,0.15,Wunderground v.1.15,2013-09-19 17:58:00,
2013-09-19 13:00:00,88.5,72.3,29.81,South,183,7.0,9.0,59,0.00,,,0.15,Wunderground v.1.15,2013-09-19 18:00:00,
2013-09-19 13:01:00,88.5,72.3,29.81,SSW,205,7.0,9.0,59,0.00,,,0.15,Wunderground v.1.15,2013-09-19 18:01:00,
2013-09-19 13:04:00,88.6,72.4,29.81,SSW,207,7.0,11.0,59,0.00,,,0.15,Wunderground v.1.15,2013-09-19 18:04:00,
2013-09-19 13:05:00,88.6,72.4,29.81,South,188,7.0,11.0,59,0.00,,,0.15,Wunderground v.1.15,2013-09-19 18:05:00,
2013-09-19 13:07:00,88.6,71.9,29.81,SSE,160,8.0,11.0,58,0.00,,,0.15,Wunderground v.1.15,2013-09-19 18:07:00,
2013-09-19 13:08:00,88.7,72.0,29.81,South,173,7.0,11.0,58,0.00,,,0.15,Wunderground v.1.15,2013-09-19 18:08:00,
2013-09-19 13:10:00,88.8,71.6,29.81,WSW,252,8.0,10.0,57,0.00,,,0.15,Wunderground v.1.15,2013-09-19 18:10:00,
2013-09-19 13:11:00,88.8,72.1,29.81,SW,216,8.0,10.0,58,0.00,,,0.15,Wunderground v.1.15,2013-09-19 18:11:00,
2013-09-19 13:15:00,88.7,71.5,29.80,SW,236,8.0,11.0,57,0.00,,,0.15,Wunderground v.1.15,2013-09-19 18:15:00,
2013-09-19 13:17:00,88.8,71.6,29.80,South,191,9.0,11.0,57,0.00,,,0.15,Wunderground v.1.15,2013-09-19 18:17:00,
2013-09-19 13:19:00,88.9,71.2,29.80,South,190,9.0,12.0,56,0.00,,,0.15,Wunderground v.1.15,2013-09-19 18:19:00,
2013-09-19 13:21:00,89.1,72.4,29.80,SSW,198,8.0,9.0,58,0.00,,,0.15,Wunderground v.1.15,2013-09-19 18:21:00,
2013-09-19 13:23:00,89.2,72.0,29.80,SSW,201,8.0,9.0,57,0.00,,,0.15,Wunderground v.1.15,2013-09-19 18:23:00,
2013-09-19 13:26:00,89.6,72.3,29.80,SSW,200,8.0,13.0,57,0.00,,,0.15,Wunderground v.1.15,2013-09-19 18:26:00,
2013-09-19 13:28:00,89.7,72.4,29.80,South,181,8.0,13.0,57,0.00,,,0.15,Wunderground v.1.15,2013-09-19 18:28:00,
2013-09-19 13:29:00,89.7,71.9,29.80,South,173,8.0,13.0,56,0.00,,,0.15,Wunderground v.1.15,2013-09-19 18:29:00,
2013-09-19 13:31:00,89.9,72.6,29.80,South,176,7.0,7.0,57,0.00,,,0.15,Wunderground v.1.15,2013-09-19 18:31:00,
2013-09-19 13:32:00,89.9,72.1,29.80,WSW,243,7.0,7.0,56,0.00,,,0.15,Wunderground v.1.15,2013-09-19 18:32:00,
2013-09-19 13:34:00,90.1,73.3,29.80,WSW,257,7.0,12.0,58,0.00,,,0.15,Wunderground v.1.15,2013-09-19 18:34:00,
2013-09-19 13:37:00,90.3,71.9,29.80,South,190,7.0,12.0,55,0.00,,,0.15,Wunderground v.1.15,2013-09-19 18:37:00,
2013-09-19 13:38:00,90.3,71.9,29.80,South,169,7.0,12.0,55,0.00,,,0.15,Wunderground v.1.15,2013-09-19 18:38:00,
2013-09-19 13:39:00,90.3,71.9,29.80,South,169,7.0,12.0,55,0.00,,,0.15,Wunderground v.1.15,2013-09-19 18:39:00,
2013-09-19 13:44:00,90.1,71.2,29.79,South,185,9.0,19.0,54,0.00,,,0.15,Wunderground v.1.15,2013-09-19 18:44:00,
2013-09-19 13:46:00,89.8,71.5,29.79,West,274,10.0,19.0,55,0.00,,,0.15,Wunderground v.1.15,2013-09-19 18:46:00,
2013-09-19 13:48:00,89.6,71.3,29.79,SSW,202,9.0,19.0,55,0.00,,,0.15,Wunderground v.1.15,2013-09-19 18:48:00,
2013-09-19 13:49:00,89.5,71.2,29.79,SSW,207,10.0,19.0,55,0.00,,,0.15,Wunderground v.1.15,2013-09-19 18:49:00,
2013-09-19 13:50:00,89.3,71.5,29.79,South,173,10.0,10.0,56,0.00,,,0.15,Wunderground v.1.15,2013-09-19 18:50:00,
2013-09-19 13:53:00,89.2,71.5,29.79,SW,217,8.0,10.0,56,0.00,,,0.15,Wunderground v.1.15,2013-09-19 18:53:00,
2013-09-19 13:54:00,89.2,72.0,29.79,South,183,8.0,10.0,57,0.00,,,0.15,Wunderground v.1.15,2013-09-19 18:54:00,
2013-09-19 13:55:00,89.2,71.5,29.79,South,178,7.0,10.0,56,0.00,,,0.15,Wunderground v.1.15,2013-09-19 18:55:00,
2013-09-19 13:56:00,89.3,71.5,29.79,South,181,7.0,10.0,56,0.00,,,0.15,Wunderground v.1.15,2013-09-19 18:56:00,
2013-09-19 13:59:00,89.5,71.2,29.78,South,186,8.0,15.0,55,0.00,,,0.15,Wunderground v.1.15,2013-09-19 18:59:00,
2013-09-19 14:00:00,89.5,71.2,29.79,South,178,8.0,13.0,55,0.00,,,0.15,Wunderground v.1.15,2013-09-19 19:00:00,
2013-09-19 14:01:00,89.6,70.8,29.78,SSW,192,9.0,13.0,54,0.00,,,0.15,Wunderground v.1.15,2013-09-19 19:01:00,
2013-09-19 14:03:00,89.7,70.8,29.78,SSW,197,9.0,13.0,54,0.00,,,0.15,Wunderground v.1.15,2013-09-19 19:03:00,
2013-09-19 14:04:00,89.7,70.8,29.78,SW,236,10.0,15.0,54,0.00,,,0.15,Wunderground v.1.15,2013-09-19 19:04:00,
2013-09-19 14:05:00,89.8,70.9,29.79,SW,219,10.0,15.0,54,0.00,,,0.15,Wunderground v.1.15,2013-09-19 19:05:00,
2013-09-19 14:09:00,90.0,71.1,29.78,South,186,9.0,17.0,54,0.00,,,0.15,Wunderground v.1.15,2013-09-19 19:09:00,
2013-09-19 14:10:00,90.1,71.2,29.78,SSW,200,10.0,10.0,54,0.00,,,0.15,Wunderground v.1.15,2013-09-19 19:10:00,
2013-09-19 14:11:00,90.3,71.4,29.78,SW,230,10.0,10.0,54,0.00,,,0.15,Wunderground v.1.15,2013-09-19 19:11:00,
2013-09-19 14:12:00,90.4,71.5,29.78,South,182,9.0,10.0,54,0.00,,,0.15,Wunderground v.1.15,2013-09-19 19:12:00,
2013-09-19 14:16:00,90.7,70.7,29.78,SSW,205,9.0,11.0,52,0.00,,,0.15,Wunderground v.1.15,2013-09-19 19:16:00,
2013-09-19 14:17:00,90.7,70.7,29.78,SSW,206,9.0,11.0,52,0.00,,,0.15,Wunderground v.1.15,2013-09-19 19:17:00,
2013-09-19 14:18:00,90.8,71.3,29.78,South,185,9.0,14.0,53,0.00,,,0.15,Wunderground v.1.15,2013-09-19 19:18:00,
2013-09-19 14:22:00,90.6,70.6,29.78,SSW,209,9.0,10.0,52,0.00,,,0.15,Wunderground v.1.15,2013-09-19 19:22:00,
2013-09-19 14:23:00,90.6,70.6,29.78,SW,234,9.0,10.0,52,0.00,,,0.15,Wunderground v.1.15,2013-09-19 19:23:00,
2013-09-19 14:24:00,90.6,70.6,29.78,SW,215,8.0,10.0,52,0.00,,,0.15,Wunderground v.1.15,2013-09-19 19:24:00,
2013-09-19 14:28:00,90.5,71.0,29.78,WSW,238,8.0,10.0,53,0.00,,,0.15,Wunderground v.1.15,2013-09-19 19:28:00,
2013-09-19 14:30:00,90.5,70.5,29.78,SSW,200,8.0,10.0,52,0.00,,,0.15,Wunderground v.1.15,2013-09-19 19:30:00,
2013-09-19 14:31:00,90.4,70.4,29.78,WSW,240,8.0,10.0,52,0.00,,,0.15,Wunderground v.1.15,2013-09-19 19:31:00,
2013-09-19 14:33:00,90.5,70.5,29.77,SW,215,9.0,13.0,52,0.00,,,0.15,Wunderground v.1.15,2013-09-19 19:33:00,
2013-09-19 14:34:00,90.5,71.0,29.77,West,271,8.0,13.0,53,0.00,,,0.15,Wunderground v.1.15,2013-09-19 19:34:00,
2013-09-19 14:37:00,90.7,71.2,29.77,South,183,7.0,13.0,53,0.00,,,0.15,Wunderground v.1.15,2013-09-19 19:37:00,
2013-09-19 14:40:00,91.0,72.0,29.77,SSW,192,6.0,7.0,54,0.00,,,0.15,Wunderground v.1.15,2013-09-19 19:40:00,
2013-09-19 14:41:00,91.2,71.1,29.77,WSW,246,6.0,14.0,52,0.00,,,0.15,Wunderground v.1.15,2013-09-19 19:41:00,
2013-09-19 14:43:00,91.4,71.3,29.77,South,191,6.0,14.0,52,0.00,,,0.15,Wunderground v.1.15,2013-09-19 19:43:00,
2013-09-19 14:46:00,91.6,70.9,29.77,SW,216,8.0,14.0,51,0.00,,,0.15,Wunderground v.1.15,2013-09-19 19:46:00,
2013-09-19 14:47:00,91.6,70.9,29.77,WSW,244,8.0,14.0,51,0.00,,,0.15,Wunderground v.1.15,2013-09-19 19:47:00,
2013-09-19 14:49:00,91.6,70.3,29.77,West,273,9.0,14.0,50,0.00,,,0.15,Wunderground v.1.15,2013-09-19 19:49:00,
2013-09-19 14:50:00,91.6,71.5,29.77,South,175,10.0,14.0,52,0.00,,,0.15,Wunderground v.1.15,2013-09-19 19:50:00,
2013-09-19 14:51:00,91.6,70.9,29.76,SSW,207,9.0,14.0,51,0.00,,,0.15,Wunderground v.1.15,2013-09-19 19:51:00,
2013-09-19 14:52:00,91.6,70.9,29.76,SW,223,9.0,14.0,51,0.00,,,0.15,Wunderground v.1.15,2013-09-19 19:52:00,
2013-09-19 14:53:00,91.6,70.9,29.76,WSW,248,9.0,14.0,51,0.00,,,0.15,Wunderground v.1.15,2013-09-19 19:53:00,
2013-09-19 14:54:00,91.7,71.0,29.76,South,185,9.0,14.0,51,0.00,,,0.15,Wunderground v.1.15,2013-09-19 19:54:00,
2013-09-19 14:57:00,91.7,71.0,29.76,SSW,195,8.0,14.0,51,0.00,,,0.15,Wunderground v.1.15,2013-09-19 19:57:00,
2013-09-19 14:58:00,91.7,70.4,29.76,SW,229,8.0,14.0,50,0.00,,,0.15,Wunderground v.1.15,2013-09-19 19:58:00,
2013-09-19 15:00:00,91.8,71.7,29.76,South,191,7.0,15.0,52,0.00,,,0.15,Wunderground v.1.15,2013-09-19 20:00:00,
2013-09-19 15:01:00,91.8,71.1,29.75,SSE,166,8.0,15.0,51,0.00,,,0.15,Wunderground v.1.15,2013-09-19 20:01:00,
2013-09-19 15:02:00,91.8,70.5,29.76,South,173,8.0,15.0,50,0.00,,,0.15,Wunderground v.1.15,2013-09-19 20:02:00,
2013-09-19 15:06:00,91.7,70.4,29.76,South,186,8.0,15.0,50,0.00,,,0.15,Wunderground v.1.15,2013-09-19 20:06:00,
2013-09-19 15:07:00,91.7,70.4,29.76,SSW,195,8.0,15.0,50,0.00,,,0.15,Wunderground v.1.15,2013-09-19 20:07:00,
2013-09-19 15:08:00,91.7,70.4,29.76,SSW,205,8.0,15.0,50,0.00,,,0.15,Wunderground v.1.15,2013-09-19 20:08:00,
2013-09-19 15:11:00,91.7,69.8,29.76,SSW,206,9.0,16.0,49,0.00,,,0.15,Wunderground v.1.15,2013-09-19 20:11:00,
2013-09-19 15:13:00,91.5,69.6,29.75,SW,231,8.0,16.0,49,0.00,,,0.15,Wunderground v.1.15,2013-09-19 20:13:00,
2013-09-19 15:14:00,91.5,70.2,29.75,South,178,8.0,16.0,50,0.00,,,0.15,Wunderground v.1.15,2013-09-19 20:14:00,
2013-09-19 15:16:00,91.1,69.9,29.75,SW,229,8.0,16.0,50,0.00,,,0.15,Wunderground v.1.15,2013-09-19 20:16:00,
2013-09-19 15:19:00,91.0,69.8,29.75,South,178,9.0,21.0,50,0.00,,,0.15,Wunderground v.1.15,2013-09-19 20:19:00,
2013-09-19 15:20:00,91.0,70.4,29.75,SSW,206,9.0,9.0,51,0.00,,,0.15,Wunderground v.1.15,2013-09-19 20:20:00,
2013-09-19 15:22:00,91.0,70.4,29.75,SSW,192,8.0,9.0,51,0.00,,,0.15,Wunderground v.1.15,2013-09-19 20:22:00,
2013-09-19 15:24:00,91.2,70.5,29.75,SW,214,9.0,9.0,51,0.00,,,0.15,Wunderground v.1.15,2013-09-19 20:24:00,
2013-09-19 15:28:00,91.4,70.1,29.74,SW,218,8.0,11.0,50,0.00,,,0.15,Wunderground v.1.15,2013-09-19 20:28:00,
2013-09-19 15:30:00,91.5,70.2,29.74,SSW,194,7.0,7.0,50,0.00,,,0.15,Wunderground v.1.15,2013-09-19 20:30:00,
2013-09-19 15:31:00,91.6,70.3,29.75,WSW,248,7.0,9.0,50,0.00,,,0.15,Wunderground v.1.15,2013-09-19 20:31:00,
2013-09-19 15:35:00,91.9,70.0,29.74,SW,214,8.0,10.0,49,0.00,,,0.15,Wunderground v.1.15,2013-09-19 20:35:00,
2013-09-19 15:36:00,92.0,69.5,29.74,SSW,194,7.0,10.0,48,0.00,,,0.15,Wunderground v.1.15,2013-09-19 20:36:00,
2013-09-19 15:38:00,92.0,70.1,29.74,SSE,163,6.0,10.0,49,0.00,,,0.15,Wunderground v.1.15,2013-09-19 20:38:00,
2013-09-19 15:41:00,91.8,70.5,29.74,SSW,199,6.0,11.0,50,0.00,,,0.15,Wunderground v.1.15,2013-09-19 20:41:00,
2013-09-19 15:42:00,91.8,71.1,29.74,South,181,6.0,11.0,51,0.00,,,0.15,Wunderground v.1.15,2013-09-19 20:42:00,
2013-09-19 15:43:00,91.7,71.0,29.74,South,177,6.0,11.0,51,0.00,,,0.15,Wunderground v.1.15,2013-09-19 20:43:00,
2013-09-19 15:46:00,91.4,71.3,29.74,South,172,6.0,11.0,52,0.00,,,0.15,Wunderground v.1.15,2013-09-19 20:46:00,
2013-09-19 15:47:00,91.4,70.7,29.74,WSW,245,6.0,11.0,51,0.00,,,0.15,Wunderground v.1.15,2013-09-19 20:47:00,
2013-09-19 15:49:00,91.3,71.8,29.73,SSW,210,6.0,11.0,53,0.00,,,0.15,Wunderground v.1.15,2013-09-19 20:49:00,
2013-09-19 15:53:00,91.3,71.2,29.73,SSW,207,6.0,11.0,52,0.00,,,0.15,Wunderground v.1.15,2013-09-19 20:53:00,
2013-09-19 15:55:00,91.3,71.2,29.72,South,183,6.0,11.0,52,0.00,,,0.15,Wunderground v.1.15,2013-09-19 20:55:00,
2013-09-19 15:58:00,91.3,70.6,29.73,South,175,6.0,12.0,51,0.00,,,0.15,Wunderground v.1.15,2013-09-19 20:58:00,
2013-09-19 16:01:00,91.3,70.6,29.73,South,185,7.0,18.0,51,0.00,,,0.15,Wunderground v.1.15,2013-09-19 21:01:00,
2013-09-19 16:02:00,91.3,70.6,29.73,WSW,242,7.0,18.0,51,0.00,,,0.15,Wunderground v.1.15,2013-09-19 21:02:00,
2013-09-19 16:03:00,91.3,71.2,29.73,SSW,209,8.0,18.0,52,0.00,,,0.15,Wunderground v.1.15,2013-09-19 21:03:00,
2013-09-19 16:05:00,91.2,71.1,29.72,South,189,9.0,18.0,52,0.00,,,0.15,Wunderground v.1.15,2013-09-19 21:05:00,
2013-09-19 16:07:00,91.1,70.5,29.72,SSW,198,10.0,18.0,51,0.00,,,0.15,Wunderground v.1.15,2013-09-19 21:07:00,
2013-09-19 16:08:00,91.1,70.5,29.73,South,180,10.0,18.0,51,0.00,,,0.15,Wunderground v.1.15,2013-09-19 21:08:00,
2013-09-19 16:10:00,91.0,70.4,29.72,SSW,198,10.0,19.0,51,0.00,,,0.15,Wunderground v.1.15,2013-09-19 21:10:00,
2013-09-19 16:13:00,90.9,70.8,29.71,SSW,200,10.0,19.0,52,0.00,,,0.15,Wunderground v.1.15,2013-09-19 21:13:00,
2013-09-19 16:14:00,90.9,70.8,29.72,SSE,164,10.0,19.0,52,0.00,,,0.15,Wunderground v.1.15,2013-09-19 21:14:00,
2013-09-19 16:15:00,90.9,70.8,29.72,South,179,10.0,19.0,52,0.00,,,0.15,Wunderground v.1.15,2013-09-19 21:15:00,
2013-09-19 16:17:00,90.8,70.7,29.71,SSW,205,9.0,19.0,52,0.00,,,0.15,Wunderground v.1.15,2013-09-19 21:17:00,
2013-09-19 16:19:00,90.8,70.2,29.71,SSE,160,8.0,19.0,51,0.00,,,0.15,Wunderground v.1.15,2013-09-19 21:19:00,
2013-09-19 16:21:00,90.8,70.7,29.71,South,186,7.0,8.0,52,0.00,,,0.15,Wunderground v.1.15,2013-09-19 21:21:00,
2013-09-19 16:26:00,90.8,70.7,29.71,South,180,7.0,10.0,52,0.00,,,0.15,Wunderground v.1.15,2013-09-19 21:26:00,
2013-09-19 16:27:00,90.8,71.3,29.71,South,175,6.0,10.0,53,0.00,,,0.15,Wunderground v.1.15,2013-09-19 21:27:00,
2013-09-19 16:32:00,90.9,71.4,29.70,SW,215,5.0,8.0,53,0.00,,,0.15,Wunderground v.1.15,2013-09-19 21:32:00,
2013-09-19 16:33:00,90.9,71.4,29.70,SSW,193,5.0,8.0,53,0.00,,,0.15,Wunderground v.1.15,2013-09-19 21:33:00,
2013-09-19 16:38:00,90.5,71.0,29.70,South,182,7.0,16.0,53,0.00,,,0.15,Wunderground v.1.15,2013-09-19 21:38:00,
2013-09-19 16:39:00,90.5,71.6,29.70,SSW,192,7.0,16.0,54,0.00,,,0.15,Wunderground v.1.15,2013-09-19 21:39:00,
2013-09-19 16:41:00,90.2,71.3,29.70,South,187,9.0,12.0,54,0.00,,,0.15,Wunderground v.1.15,2013-09-19 21:41:00,
2013-09-19 16:42:00,90.2,71.3,29.70,SSW,199,9.0,12.0,54,0.00,,,0.15,Wunderground v.1.15,2013-09-19 21:42:00,
2013-09-19 16:46:00,89.9,71.6,29.70,SSW,192,9.0,12.0,55,0.00,,,0.15,Wunderground v.1.15,2013-09-19 21:46:00,
2013-09-19 16:47:00,89.9,72.1,29.70,South,190,9.0,12.0,56,0.00,,,0.15,Wunderground v.1.15,2013-09-19 21:47:00,
2013-09-19 16:48:00,89.9,71.6,29.70,SSW,197,8.0,12.0,55,0.00,,,0.15,Wunderground v.1.15,2013-09-19 21:48:00,
2013-09-19 16:49:00,89.9,71.6,29.70,SSE,167,8.0,12.0,55,0.00,,,0.15,Wunderground v.1.15,2013-09-19 21:49:00,
2013-09-19 16:51:00,89.7,71.4,29.70,South,182,7.0,10.0,55,0.00,,,0.15,Wunderground v.1.15,2013-09-19 21:51:00,
2013-09-19 16:52:00,89.7,71.4,29.70,WSW,257,7.0,10.0,55,0.00,,,0.15,Wunderground v.1.15,2013-09-19 21:52:00,
2013-09-19 16:54:00,89.6,71.3,29.70,South,174,7.0,11.0,55,0.00,,,0.15,Wunderground v.1.15,2013-09-19 21:54:00,
2013-09-19 16:56:00,89.5,71.2,29.70,SSW,198,8.0,11.0,55,0.00,,,0.15,Wunderground v.1.15,2013-09-19 21:56:00,
2013-09-19 16:59:00,89.4,71.6,29.70,WSW,239,9.0,11.0,56,0.00,,,0.15,Wunderground v.1.15,2013-09-19 21:59:00,
2013-09-19 17:01:00,89.2,71.5,29.70,SSE,167,8.0,9.0,56,0.00,,,0.15,Wunderground v.1.15,2013-09-19 22:01:00,
2013-09-19 17:03:00,89.2,71.5,29.70,SSE,162,7.0,10.0,56,0.00,,,0.15,Wunderground v.1.15,2013-09-19 22:03:00,
2013-09-19 17:04:00,89.2,71.5,29.70,SW,215,7.0,10.0,56,0.00,,,0.15,Wunderground v.1.15,2013-09-19 22:04:00,
2013-09-19 17:06:00,89.1,70.8,29.69,SSW,194,8.0,10.0,55,0.00,,,0.15,Wunderground v.1.15,2013-09-19 22:06:00,
2013-09-19 17:10:00,89.1,71.4,29.70,South,189,7.0,7.0,56,0.00,,,0.15,Wunderground v.1.15,2013-09-19 22:10:00,
2013-09-19 17:11:00,89.1,71.4,29.70,South,182,7.0,7.0,56,0.00,,,0.15,Wunderground v.1.15,2013-09-19 22:11:00,
2013-09-19 17:13:00,89.1,70.8,29.70,South,175,7.0,12.0,55,0.00,,,0.15,Wunderground v.1.15,2013-09-19 22:13:00,
2013-09-19 17:15:00,89.1,71.4,29.70,South,169,6.0,12.0,56,0.00,,,0.15,Wunderground v.1.15,2013-09-19 22:15:00,
2013-09-19 17:17:00,89.1,70.8,29.70,South,187,5.0,12.0,55,0.00,,,0.15,Wunderground v.1.15,2013-09-19 22:17:00,
2013-09-19 17:20:00,89.2,71.5,29.70,SSW,192,6.0,6.0,56,0.00,,,0.15,Wunderground v.1.15,2013-09-19 22:20:00,
2013-09-19 17:21:00,89.1,70.8,29.70,South,180,6.0,6.0,55,0.00,,,0.15,Wunderground v.1.15,2013-09-19 22:21:00,
2013-09-19 17:22:00,89.1,70.8,29.71,South,178,7.0,7.0,55,0.00,,,0.15,Wunderground v.1.15,2013-09-19 22:22:00,
2013-09-19 17:23:00,89.0,70.7,29.71,South,187,7.0,11.0,55,0.00,,,0.15,Wunderground v.1.15,2013-09-19 22:23:00,
2013-09-19 17:24:00,89.0,70.7,29.71,South,186,7.0,11.0,55,0.00,,,0.15,Wunderground v.1.15,2013-09-19 22:24:00,
2013-09-19 17:26:00,89.0,70.7,29.71,SSW,197,8.0,14.0,55,0.00,,,0.15,Wunderground v.1.15,2013-09-19 22:26:00,
2013-09-19 17:28:00,88.9,70.6,29.71,SSW,194,9.0,14.0,55,0.00,,,0.15,Wunderground v.1.15,2013-09-19 22:28:00,
2013-09-19 17:30:00,88.8,71.1,29.71,SSW,192,8.0,8.0,56,0.00,,,0.15,Wunderground v.1.15,2013-09-19 22:30:00,
2013-09-19 17:33:00,88.8,71.1,29.71,South,185,8.0,10.0,56,0.00,,,0.15,Wunderground v.1.15,2013-09-19 22:33:00,
2013-09-19 17:34:00,88.7,71.0,29.71,South,184,8.0,10.0,56,0.00,,,0.15,Wunderground v.1.15,2013-09-19 22:34:00,
2013-09-19 17:35:00,88.7,71.5,29.71,South,189,7.0,10.0,57,0.00,,,0.15,Wunderground v.1.15,2013-09-19 22:35:00,
2013-09-19 17:36:00,88.7,71.0,29.71,South,179,7.0,10.0,56,0.00,,,0.15,Wunderground v.1.15,2013-09-19 22:36:00,
2013-09-19 17:41:00,88.5,70.8,29.72,SSW,198,7.0,10.0,56,0.00,,,0.15,Wunderground v.1.15,2013-09-19 22:41:00,
2013-09-19 17:42:00,88.5,70.8,29.72,SSW,203,7.0,10.0,56,0.00,,,0.15,Wunderground v.1.15,2013-09-19 22:42:00,
2013-09-19 17:43:00,88.5,71.3,29.72,SSW,194,7.0,10.0,57,0.00,,,0.15,Wunderground v.1.15,2013-09-19 22:43:00,
2013-09-19 17:46:00,88.4,71.2,29.72,South,188,6.0,10.0,57,0.00,,,0.15,Wunderground v.1.15,2013-09-19 22:46:00,
2013-09-19 17:49:00,88.4,71.2,29.72,South,191,6.0,10.0,57,0.00,,,0.15,Wunderground v.1.15,2013-09-19 22:49:00,
2013-09-19 17:51:00,88.3,70.6,29.72,SSW,198,6.0,13.0,56,0.00,,,0.15,Wunderground v.1.15,2013-09-19 22:51:00,
2013-09-19 17:52:00,88.3,71.1,29.72,SSW,198,5.0,13.0,57,0.00,,,0.15,Wunderground v.1.15,2013-09-19 22:52:00,
2013-09-19 17:53:00,88.2,71.0,29.72,SSW,202,5.0,13.0,57,0.00,,,0.15,Wunderground v.1.15,2013-09-19 22:53:00,
2013-09-19 17:58:00,88.0,71.4,29.72,SSE,149,5.0,13.0,58,0.00,,,0.15,Wunderground v.1.15,2013-09-19 22:58:00,
2013-09-19 17:59:00,88.0,70.9,29.72,SW,225,5.0,13.0,57,0.00,,,0.15,Wunderground v.1.15,2013-09-19 22:59:00,
2013-09-19 18:01:00,87.8,70.7,29.72,South,180,5.0,7.0,57,0.00,,,0.15,Wunderground v.1.15,2013-09-19 23:01:00,
2013-09-19 18:05:00,87.7,71.1,29.73,SSW,198,5.0,12.0,58,0.00,,,0.15,Wunderground v.1.15,2013-09-19 23:05:00,
2013-09-19 18:08:00,87.5,70.9,29.72,South,173,5.0,12.0,58,0.00,,,0.15,Wunderground v.1.15,2013-09-19 23:08:00,
2013-09-19 18:09:00,87.5,70.9,29.72,SSW,203,5.0,12.0,58,0.00,,,0.15,Wunderground v.1.15,2013-09-19 23:09:00,
2013-09-19 18:12:00,87.4,70.8,29.72,South,190,5.0,12.0,58,0.00,,,0.15,Wunderground v.1.15,2013-09-19 23:12:00,
2013-09-19 18:13:00,87.4,70.8,29.72,SSW,192,5.0,12.0,58,0.00,,,0.15,Wunderground v.1.15,2013-09-19 23:13:00,
2013-09-19 18:17:00,87.3,71.2,29.72,South,185,6.0,12.0,59,0.00,,,0.15,Wunderground v.1.15,2013-09-19 23:17:00,
2013-09-19 18:18:00,87.3,71.2,29.72,SSW,194,5.0,12.0,59,0.00,,,0.15,Wunderground v.1.15,2013-09-19 23:18:00,
2013-09-19 18:19:00,87.2,71.1,29.72,South,180,5.0,12.0,59,0.00,,,0.15,Wunderground v.1.15,2013-09-19 23:19:00,
2013-09-19 18:22:00,87.1,71.0,29.72,SSW,209,5.0,6.0,59,0.00,,,0.15,Wunderground v.1.15,2013-09-19 23:22:00,
2013-09-19 18:25:00,87.0,71.4,29.72,South,189,5.0,6.0,60,0.00,,,0.15,Wunderground v.1.15,2013-09-19 23:25:00,
2013-09-19 18:27:00,86.9,71.3,29.72,SSW,197,4.0,6.0,60,0.00,,,0.15,Wunderground v.1.15,2013-09-19 23:27:00,
2013-09-19 18:28:00,86.8,71.2,29.73,SSW,194,4.0,6.0,60,0.00,,,0.15,Wunderground v.1.15,2013-09-19 23:28:00,
2013-09-19 18:29:00,86.8,71.2,29.73,SSW,194,4.0,6.0,60,0.00,,,0.15,Wunderground v.1.15,2013-09-19 23:29:00,
2013-09-19 18:34:00,86.6,71.5,29.72,SSW,205,4.0,5.0,61,0.00,,,0.15,Wunderground v.1.15,2013-09-19 23:34:00,
2013-09-19 18:35:00,86.5,71.5,29.73,South,188,4.0,5.0,61,0.00,,,0.15,Wunderground v.1.15,2013-09-19 23:35:00,
2013-09-19 18:36:00,86.4,71.4,29.73,SSW,198,4.0,5.0,61,0.00,,,0.15,Wunderground v.1.15,2013-09-19 23:36:00,
2013-09-19 18:37:00,86.4,71.4,29.73,South,182,4.0,5.0,61,0.00,,,0.15,Wunderground v.1.15,2013-09-19 23:37:00,
2013-09-19 18:40:00,86.3,71.3,29.73,South,189,4.0,4.0,61,0.00,,,0.15,Wunderground v.1.15,2013-09-19 23:40:00,
2013-09-19 18:42:00,86.2,71.2,29.73,South,188,4.0,6.0,61,0.00,,,0.15,Wunderground v.1.15,2013-09-19 23:42:00,
2013-09-19 18:45:00,86.0,71.0,29.73,South,177,5.0,6.0,61,0.00,,,0.15,Wunderground v.1.15,2013-09-19 23:45:00,
2013-09-19 18:48:00,85.9,71.4,29.73,South,182,5.0,6.0,62,0.00,,,0.15,Wunderground v.1.15,2013-09-19 23:48:00,
2013-09-19 18:49:00,85.9,71.4,29.73,SSW,194,5.0,6.0,62,0.00,,,0.15,Wunderground v.1.15,2013-09-19 23:49:00,
2013-09-19 18:50:00,85.8,71.3,29.72,South,175,6.0,6.0,62,0.00,,,0.15,Wunderground v.1.15,2013-09-19 23:50:00,
2013-09-19 18:51:00,85.7,71.2,29.73,South,176,6.0,6.0,62,0.00,,,0.15,Wunderground v.1.15,2013-09-19 23:51:00,
2013-09-19 18:53:00,85.7,71.2,29.73,SSE,160,6.0,6.0,62,0.00,,,0.15,Wunderground v.1.15,2013-09-19 23:53:00,
2013-09-19 18:55:00,85.6,71.1,29.73,South,175,6.0,6.0,62,0.00,,,0.15,Wunderground v.1.15,2013-09-19 23:55:00,
2013-09-19 18:56:00,85.6,71.1,29.73,South,190,6.0,6.0,62,0.00,,,0.15,Wunderground v.1.15,2013-09-19 23:56:00,
2013-09-19 18:59:00,85.5,71.0,29.73,South,188,5.0,6.0,62,0.00,,,0.15,Wunderground v.1.15,2013-09-19 23:59:00,
2013-09-19 19:00:00,85.5,71.0,29.73,South,176,5.0,5.0,62,0.00,,,0.15,Wunderground v.1.15,2013-09-20 00:00:00,
2013-09-19 19:01:00,85.5,71.0,29.73,South,175,5.0,10.0,62,0.00,,,0.15,Wunderground v.1.15,2013-09-20 00:01:00,
2013-09-19 19:02:00,85.4,70.9,29.73,SSW,203,6.0,10.0,62,0.00,,,0.15,Wunderground v.1.15,2013-09-20 00:02:00,
2013-09-19 19:03:00,85.4,70.9,29.73,South,186,6.0,10.0,62,0.00,,,0.15,Wunderground v.1.15,2013-09-20 00:03:00,
2013-09-19 19:05:00,85.3,71.3,29.73,South,171,6.0,10.0,63,0.00,,,0.15,Wunderground v.1.15,2013-09-20 00:05:00,
2013-09-19 19:08:00,85.1,71.1,29.73,South,188,6.0,10.0,63,0.00,,,0.15,Wunderground v.1.15,2013-09-20 00:08:00,
2013-09-19 19:11:00,84.9,70.9,29.73,South,186,7.0,7.0,63,0.00,,,0.15,Wunderground v.1.15,2013-09-20 00:11:00,
2013-09-19 19:12:00,84.9,70.9,29.73,SSE,148,7.0,7.0,63,0.00,,,0.15,Wunderground v.1.15,2013-09-20 00:12:00,
2013-09-19 19:13:00,84.8,71.3,29.73,South,173,7.0,7.0,64,0.00,,,0.15,Wunderground v.1.15,2013-09-20 00:13:00,
2013-09-19 19:14:00,84.8,71.3,29.73,SSE,164,6.0,7.0,64,0.00,,,0.15,Wunderground v.1.15,2013-09-20 00:14:00,
2013-09-19 19:15:00,84.7,71.2,29.73,SSW,196,6.0,12.0,64,0.00,,,0.15,Wunderground v.1.15,2013-09-20 00:15:00,
2013-09-19 19:17:00,84.6,71.1,29.73,SSE,151,6.0,12.0,64,0.00,,,0.15,Wunderground v.1.15,2013-09-20 00:17:00,
2013-09-19 19:18:00,84.5,71.0,29.73,SSW,196,6.0,12.0,64,0.00,,,0.15,Wunderground v.1.15,2013-09-20 00:18:00,
2013-09-19 19:19:00,84.5,71.0,29.73,South,184,5.0,12.0,64,0.00,,,0.15,Wunderground v.1.15,2013-09-20 00:19:00,
2013-09-19 19:21:00,84.3,71.2,29.73,South,177,5.0,6.0,65,0.00,,,0.15,Wunderground v.1.15,2013-09-20 00:21:00,
2013-09-19 19:23:00,84.2,71.2,29.73,SSW,198,5.0,6.0,65,0.00,,,0.15,Wunderground v.1.15,2013-09-20 00:23:00,
2013-09-19 19:25:00,84.1,71.1,29.73,South,185,5.0,6.0,65,0.00,,,0.15,Wunderground v.1.15,2013-09-20 00:25:00,
2013-09-19 19:27:00,84.0,71.0,29.74,South,183,5.0,6.0,65,0.00,,,0.15,Wunderground v.1.15,2013-09-20 00:27:00,
2013-09-19 19:29:00,83.9,71.3,29.73,South,188,5.0,7.0,66,0.00,,,0.15,Wunderground v.1.15,2013-09-20 00:29:00,
2013-09-19 19:32:00,83.6,71.0,29.73,South,190,5.0,6.0,66,0.00,,,0.15,Wunderground v.1.15,2013-09-20 00:32:00,
2013-09-19 19:35:00,83.5,70.9,29.73,South,170,5.0,10.0,66,0.00,,,0.15,Wunderground v.1.15,2013-09-20 00:35:00,
2013-09-19 19:36:00,83.4,70.8,29.73,South,188,5.0,10.0,66,0.00,,,0.15,Wunderground v.1.15,2013-09-20 00:36:00,
2013-09-19 19:37:00,83.4,70.8,29.73,SSW,192,5.0,10.0,66,0.00,,,0.15,Wunderground v.1.15,2013-09-20 00:37:00,
2013-09-19 19:39:00,83.3,70.8,29.74,South,173,5.0,10.0,66,0.00,,,0.15,Wunderground v.1.15,2013-09-20 00:39:00,
2013-09-19 19:42:00,83.2,71.1,29.74,South,184,5.0,7.0,67,0.00,,,0.15,Wunderground v.1.15,2013-09-20 00:42:00,
2013-09-19 19:43:00,83.1,71.0,29.74,SSW,194,5.0,7.0,67,0.00,,,0.15,Wunderground v.1.15,2013-09-20 00:43:00,
2013-09-19 19:45:00,83.1,71.0,29.74,South,189,5.0,7.0,67,0.00,,,0.15,Wunderground v.1.15,2013-09-20 00:45:00,
2013-09-19 19:47:00,83.0,70.9,29.74,South,170,6.0,7.0,67,0.00,,,0.15,Wunderground v.1.15,2013-09-20 00:47:00,
2013-09-19 19:49:00,82.9,70.8,29.74,SW,226,6.0,7.0,67,0.00,,,0.15,Wunderground v.1.15,2013-09-20 00:49:00,
2013-09-19 19:51:00,82.9,71.3,29.74,South,183,5.0,7.0,68,0.00,,,0.15,Wunderground v.1.15,2013-09-20 00:51:00,
2013-09-19 19:52:00,82.9,71.3,29.74,South,186,6.0,7.0,68,0.00,,,0.15,Wunderground v.1.15,2013-09-20 00:52:00,
2013-09-19 19:54:00,82.8,71.2,29.74,SSW,206,5.0,7.0,68,0.00,,,0.15,Wunderground v.1.15,2013-09-20 00:54:00,
2013-09-19 19:57:00,82.6,71.4,29.74,SSW,195,5.0,7.0,69,0.00,,,0.15,Wunderground v.1.15,2013-09-20 00:57:00,
2013-09-19 19:58:00,82.6,71.4,29.74,South,188,4.0,7.0,69,0.00,,,0.15,Wunderground v.1.15,2013-09-20 00:58:00,
2013-09-19 19:59:00,82.5,71.3,29.74,South,186,4.0,7.0,69,0.00,,,0.15,Wunderground v.1.15,2013-09-20 00:59:00,
2013-09-19 20:00:00,82.4,71.2,29.74,SW,225,4.0,6.0,69,0.00,,,0.15,Wunderground v.1.15,2013-09-20 01:00:00,
2013-09-19 20:04:00,82.0,70.8,29.74,SSE,161,5.0,10.0,69,0.00,,,0.15,Wunderground v.1.15,2013-09-20 01:04:00,
2013-09-19 20:08:00,81.8,70.6,29.74,South,182,5.0,10.0,69,0.00,,,0.15,Wunderground v.1.15,2013-09-20 01:08:00,
2013-09-19 20:09:00,81.8,70.6,29.74,South,176,5.0,12.0,69,0.00,,,0.15,Wunderground v.1.15,2013-09-20 01:09:00,
2013-09-19 20:11:00,81.7,70.5,29.74,South,190,6.0,6.0,69,0.00,,,0.15,Wunderground v.1.15,2013-09-20 01:11:00,
2013-09-19 20:14:00,81.7,70.5,29.74,South,180,6.0,13.0,69,0.00,,,0.15,Wunderground v.1.15,2013-09-20 01:14:00,
2013-09-19 20:15:00,81.7,70.5,29.74,SSW,196,6.0,13.0,69,0.00,,,0.15,Wunderground v.1.15,2013-09-20 01:15:00,
2013-09-19 20:16:00,81.7,70.5,29.74,South,190,6.0,13.0,69,0.00,,,0.15,Wunderground v.1.15,2013-09-20 01:16:00,
2013-09-19 20:18:00,81.7,70.5,29.74,South,183,6.0,13.0,69,0.00,,,0.15,Wunderground v.1.15,2013-09-20 01:18:00,
2013-09-19 20:20:00,81.7,70.5,29.74,South,172,5.0,6.0,69,0.00,,,0.15,Wunderground v.1.15,2013-09-20 01:20:00,
2013-09-19 20:21:00,81.6,70.4,29.74,South,170,6.0,6.0,69,0.00,,,0.15,Wunderground v.1.15,2013-09-20 01:21:00,
2013-09-19 20:24:00,81.6,70.4,29.73,SSW,202,5.0,7.0,69,0.00,,,0.15,Wunderground v.1.15,2013-09-20 01:24:00,
2013-09-19 20:25:00,81.6,70.4,29.73,SSW,206,5.0,7.0,69,0.00,,,0.15,Wunderground v.1.15,2013-09-20 01:25:00,
2013-09-19 20:26:00,81.6,70.4,29.73,South,188,5.0,7.0,69,0.00,,,0.15,Wunderground v.1.15,2013-09-20 01:26:00,
2013-09-19 20:28:00,81.6,70.4,29.73,South,182,5.0,13.0,69,0.00,,,0.15,Wunderground v.1.15,2013-09-20 01:28:00,
2013-09-19 20:32:00,81.6,70.4,29.75,SSW,211,5.0,10.0,69,0.00,,,0.15,Wunderground v.1.15,2013-09-20 01:32:00,
2013-09-19 20:33:00,81.5,70.3,29.75,WSW,249,5.0,12.0,69,0.00,,,0.15,Wunderground v.1.15,2013-09-20 01:33:00,
2013-09-19 20:34:00,81.5,70.3,29.75,WSW,247,6.0,12.0,69,0.00,,,0.15,Wunderground v.1.15,2013-09-20 01:34:00,
2013-09-19 20:36:00,81.5,70.3,29.78,SSW,194,6.0,12.0,69,0.00,,,0.15,Wunderground v.1.15,2013-09-20 01:36:00,
2013-09-19 20:37:00,81.5,69.9,29.78,WSW,246,6.0,14.0,68,0.00,,,0.15,Wunderground v.1.15,2013-09-20 01:37:00,
2013-09-19 20:40:00,80.9,66.2,29.78,North,355,6.0,7.0,61,0.00,,,0.15,Wunderground v.1.15,2013-09-20 01:40:00,
2013-09-19 20:43:00,79.7,66.0,29.79,NW,314,6.0,7.0,63,0.00,,,0.15,Wunderground v.1.15,2013-09-20 01:43:00,
2013-09-19 20:44:00,79.3,66.1,29.79,SW,214,6.0,7.0,64,0.00,,,0.15,Wunderground v.1.15,2013-09-20 01:44:00,
2013-09-19 20:46:00,78.2,65.9,29.79,SSW,200,6.0,7.0,66,0.00,,,0.15,Wunderground v.1.15,2013-09-20 01:46:00,
2013-09-19 20:49:00,77.3,65.9,29.79,NNE,15,5.0,9.0,68,0.00,,,0.15,Wunderground v.1.15,2013-09-20 01:49:00,
2013-09-19 20:51:00,76.4,65.9,29.79,SSE,163,5.0,5.0,70,0.00,,,0.15,Wunderground v.1.15,2013-09-20 01:51:00,
2013-09-19 20:53:00,75.7,66.0,29.78,South,174,5.0,9.0,72,0.00,,,0.15,Wunderground v.1.15,2013-09-20 01:53:00,
2013-09-19 20:55:00,75.0,66.1,29.78,SSE,162,4.0,9.0,74,0.00,,,0.15,Wunderground v.1.15,2013-09-20 01:55:00,
2013-09-19 20:58:00,74.0,66.0,29.78,South,173,3.0,9.0,76,0.00,,,0.16,Wunderground v.1.15,2013-09-20 01:58:00,
2013-09-19 21:00:00,73.5,65.8,29.78,SW,216,3.0,3.0,77,0.00,,,0.16,Wunderground v.1.15,2013-09-20 02:00:00,
2013-09-19 21:01:00,73.1,65.8,29.77,SW,214,3.0,3.0,78,0.00,,,0.16,Wunderground v.1.15,2013-09-20 02:01:00,
2013-09-19 21:03:00,72.7,65.8,29.77,SW,221,2.0,3.0,79,0.00,,,0.16,Wunderground v.1.15,2013-09-20 02:03:00,
2013-09-19 21:07:00,71.8,65.7,29.77,North,351,2.0,4.0,81,0.00,,,0.16,Wunderground v.1.15,2013-09-20 02:07:00,
2013-09-19 21:08:00,71.7,65.6,29.77,NNW,348,2.0,4.0,81,0.00,,,0.16,Wunderground v.1.15,2013-09-20 02:08:00,
2013-09-19 21:09:00,71.5,65.7,29.77,WSW,241,2.0,10.0,82,0.00,,,0.16,Wunderground v.1.15,2013-09-20 02:09:00,
2013-09-19 21:12:00,71.0,65.6,29.77,West,267,2.0,2.0,83,0.00,,,0.16,Wunderground v.1.15,2013-09-20 02:12:00,
2013-09-19 21:15:00,70.6,65.5,29.78,SSW,196,2.0,4.0,84,0.00,,,0.16,Wunderground v.1.15,2013-09-20 02:15:00,
2013-09-19 21:16:00,70.4,65.7,29.78,West,263,2.0,10.0,85,0.00,,,0.16,Wunderground v.1.15,2013-09-20 02:16:00,
2013-09-19 21:18:00,70.2,65.5,29.79,SSW,194,3.0,10.0,85,0.00,,,0.16,Wunderground v.1.15,2013-09-20 02:18:00,
2013-09-19 21:20:00,70.0,65.6,29.78,SW,224,3.0,3.0,86,0.00,,,0.16,Wunderground v.1.15,2013-09-20 02:20:00,
2013-09-19 21:22:00,69.9,65.5,29.78,South,186,3.0,3.0,86,0.00,,,0.16,Wunderground v.1.15,2013-09-20 02:22:00,
2013-09-19 21:23:00,69.8,65.4,29.78,South,186,4.0,4.0,86,0.00,,,0.16,Wunderground v.1.15,2013-09-20 02:23:00,
2013-09-19 21:25:00,69.7,65.7,29.78,South,180,4.0,4.0,87,0.00,,,0.16,Wunderground v.1.15,2013-09-20 02:25:00,
2013-09-19 21:27:00,69.5,65.5,29.78,NW,311,4.0,4.0,87,0.00,,,0.16,Wunderground v.1.15,2013-09-20 02:27:00,
2013-09-19 21:29:00,69.4,65.4,29.77,WSW,237,3.0,4.0,87,0.00,,,0.16,Wunderground v.1.15,2013-09-20 02:29:00,
2013-09-19 21:31:00,69.3,65.6,29.77,WSW,248,3.0,3.0,88,0.00,,,0.16,Wunderground v.1.15,2013-09-20 02:31:00,
2013-09-19 21:32:00,69.3,65.6,29.77,WSW,248,3.0,3.0,88,0.00,,,0.16,Wunderground v.1.15,2013-09-20 02:32:00,
2013-09-19 21:34:00,69.2,65.5,29.76,SW,229,2.0,3.0,88,0.00,,,0.16,Wunderground v.1.15,2013-09-20 02:34:00,
2013-09-19 21:38:00,69.1,65.7,29.76,SW,230,2.0,3.0,89,0.00,,,0.16,Wunderground v.1.15,2013-09-20 02:38:00,
2013-09-19 21:39:00,69.0,65.6,29.76,SW,230,1.0,3.0,89,0.00,,,0.16,Wunderground v.1.15,2013-09-20 02:39:00,
2013-09-19 21:42:00,69.0,65.6,29.76,SW,230,1.0,2.0,89,0.00,,,0.16,Wunderground v.1.15,2013-09-20 02:42:00,
2013-09-19 21:43:00,68.9,65.5,29.76,SW,229,1.0,3.0,89,0.00,,,0.16,Wunderground v.1.15,2013-09-20 02:43:00,
2013-09-19 21:44:00,68.9,65.5,29.76,SW,218,2.0,4.0,89,0.00,,,0.16,Wunderground v.1.15,2013-09-20 02:44:00,
2013-09-19 21:46:00,68.9,65.5,29.76,SSW,210,2.0,4.0,89,0.00,,,0.16,Wunderground v.1.15,2013-09-20 02:46:00,
2013-09-19 21:48:00,68.8,65.4,29.77,SSW,210,2.0,4.0,89,0.00,,,0.16,Wunderground v.1.15,2013-09-20 02:48:00,
2013-09-19 21:50:00,68.8,65.7,29.77,SSW,209,2.0,2.0,90,0.00,,,0.16,Wunderground v.1.15,2013-09-20 02:50:00,
2013-09-19 21:51:00,68.8,65.7,29.77,SSW,209,2.0,2.0,90,0.00,,,0.16,Wunderground v.1.15,2013-09-20 02:51:00,
2013-09-19 21:55:00,68.7,65.6,29.76,SSW,209,2.0,2.0,90,0.00,,,0.17,Wunderground v.1.15,2013-09-20 02:55:00,
2013-09-19 21:56:00,68.7,65.6,29.76,SSW,209,1.0,2.0,90,0.00,,,0.17,Wunderground v.1.15,2013-09-20 02:56:00,
2013-09-19 22:01:00,68.5,65.4,29.76,SSW,209,1.0,3.0,90,0.00,,,0.17,Wunderground v.1.15,2013-09-20 03:01:00,
2013-09-19 22:02:00,68.5,65.8,29.76,SSW,209,1.0,3.0,91,0.00,,,0.17,Wunderground v.1.15,2013-09-20 03:02:00,
2013-09-19 22:07:00,68.5,65.8,29.76,SSW,209,1.0,3.0,91,0.00,,,0.17,Wunderground v.1.15,2013-09-20 03:07:00,
2013-09-19 22:09:00,68.4,65.7,29.76,SSW,209,1.0,3.0,91,0.00,,,0.17,Wunderground v.1.15,2013-09-20 03:09:00,
2013-09-19 22:13:00,68.3,65.6,29.76,SSW,209,1.0,1.0,91,0.00,,,0.17,Wunderground v.1.15,2013-09-20 03:13:00,
2013-09-19 22:14:00,68.3,65.6,29.76,SSW,209,1.0,1.0,91,0.00,,,0.17,Wunderground v.1.15,2013-09-20 03:14:00,
2013-09-19 22:16:00,68.3,65.6,29.76,SSW,209,1.0,1.0,91,0.00,,,0.17,Wunderground v.1.15,2013-09-20 03:16:00,
2013-09-19 22:19:00,68.3,65.6,29.76,SSW,209,1.0,3.0,91,0.00,,,0.17,Wunderground v.1.15,2013-09-20 03:19:00,
2013-09-19 22:22:00,68.2,65.5,29.76,SSW,209,0.0,1.0,91,0.00,,,0.17,Wunderground v.1.15,2013-09-20 03:22:00,
2013-09-19 22:23:00,68.2,65.5,29.76,SSW,209,0.0,1.0,91,0.00,,,0.17,Wunderground v.1.15,2013-09-20 03:23:00,
2013-09-19 22:24:00,68.2,65.5,29.76,SSW,209,0.0,1.0,91,0.00,,,0.17,Wunderground v.1.15,2013-09-20 03:24:00,
2013-09-19 22:26:00,68.2,65.8,29.77,SSW,209,0.0,2.0,92,0.00,,,0.17,Wunderground v.1.15,2013-09-20 03:26:00,
2013-09-19 22:31:00,68.2,65.8,29.77,SSW,209,1.0,2.0,92,0.00,,,0.17,Wunderground v.1.15,2013-09-20 03:31:00,
2013-09-19 22:32:00,68.1,65.7,29.77,SSW,209,1.0,2.0,92,0.00,,,0.17,Wunderground v.1.15,2013-09-20 03:32:00,
2013-09-19 22:35:00,68.1,65.7,29.77,SSW,209,2.0,4.0,92,0.00,,,0.17,Wunderground v.1.15,2013-09-20 03:35:00,
2013-09-19 22:37:00,68.1,65.7,29.77,SSW,209,2.0,4.0,92,0.00,,,0.17,Wunderground v.1.15,2013-09-20 03:37:00,
2013-09-19 22:40:00,68.1,65.7,29.77,SSW,205,2.0,3.0,92,0.00,,,0.17,Wunderground v.1.15,2013-09-20 03:40:00,
2013-09-19 22:41:00,68.0,65.6,29.77,SSW,200,2.0,4.0,92,0.00,,,0.17,Wunderground v.1.15,2013-09-20 03:41:00,
2013-09-19 22:46:00,68.0,65.6,29.78,SSW,198,3.0,5.0,92,0.00,,,0.17,Wunderground v.1.15,2013-09-20 03:46:00,
2013-09-19 22:47:00,68.1,65.7,29.78,SSW,205,3.0,5.0,92,0.00,,,0.17,Wunderground v.1.15,2013-09-20 03:47:00,
2013-09-19 22:48:00,68.0,65.6,29.78,SSW,207,3.0,5.0,92,0.00,,,0.17,Wunderground v.1.15,2013-09-20 03:48:00,
2013-09-19 22:52:00,68.0,65.6,29.78,South,187,3.0,3.0,92,0.00,,,0.17,Wunderground v.1.15,2013-09-20 03:52:00,
2013-09-19 22:53:00,68.0,65.6,29.78,South,187,3.0,5.0,92,0.00,,,0.17,Wunderground v.1.15,2013-09-20 03:53:00,
2013-09-19 22:54:00,68.0,65.6,29.78,South,186,3.0,5.0,92,0.00,,,0.17,Wunderground v.1.15,2013-09-20 03:54:00,
2013-09-19 22:56:00,68.0,65.9,29.78,South,184,3.0,8.0,93,0.00,,,0.17,Wunderground v.1.15,2013-09-20 03:56:00,
2013-09-19 22:59:00,68.0,65.9,29.79,South,188,4.0,8.0,93,0.00,,,0.17,Wunderground v.1.15,2013-09-20 03:59:00,
2013-09-19 23:01:00,68.0,65.9,29.79,South,178,4.0,7.0,93,0.00,,,0.17,Wunderground v.1.15,2013-09-20 04:01:00,
2013-09-19 23:03:00,68.0,65.9,29.79,South,178,4.0,7.0,93,0.00,,,0.17,Wunderground v.1.15,2013-09-20 04:03:00,
2013-09-19 23:05:00,68.0,65.9,29.79,SSW,213,5.0,7.0,93,0.00,,,0.17,Wunderground v.1.15,2013-09-20 04:05:00,
2013-09-19 23:06:00,68.0,65.9,29.79,SW,219,5.0,7.0,93,0.00,,,0.17,Wunderground v.1.15,2013-09-20 04:06:00,
2013-09-19 23:08:00,68.0,65.9,29.79,SSW,194,5.0,7.0,93,0.00,,,0.17,Wunderground v.1.15,2013-09-20 04:08:00,
2013-09-19 23:12:00,68.0,65.9,29.80,SW,214,5.0,5.0,93,0.00,,,0.17,Wunderground v.1.15,2013-09-20 04:12:00,
2013-09-19 23:14:00,68.0,65.9,29.79,South,173,5.0,5.0,93,0.00,,,0.17,Wunderground v.1.15,2013-09-20 04:14:00,
2013-09-19 23:17:00,68.0,65.9,29.80,SSE,158,5.0,6.0,93,0.00,,,0.17,Wunderground v.1.15,2013-09-20 04:17:00,
2013-09-19 23:18:00,68.0,65.9,29.79,South,172,5.0,6.0,93,0.00,,,0.17,Wunderground v.1.15,2013-09-20 04:18:00,
2013-09-19 23:20:00,68.0,65.9,29.79,South,183,5.0,9.0,93,0.00,,,0.18,Wunderground v.1.15,2013-09-20 04:20:00,
2013-09-19 23:21:00,68.0,65.9,29.79,SSW,194,5.0,9.0,93,0.00,,,0.18,Wunderground v.1.15,2013-09-20 04:21:00,
2013-09-19 23:23:00,67.9,65.8,29.80,South,190,5.0,10.0,93,0.00,,,0.18,Wunderground v.1.15,2013-09-20 04:23:00,
2013-09-19 23:24:00,67.9,65.8,29.79,SSW,192,5.0,10.0,93,0.00,,,0.18,Wunderground v.1.15,2013-09-20 04:24:00,
2013-09-19 23:25:00,67.9,65.8,29.79,SSW,198,5.0,10.0,93,0.00,,,0.18,Wunderground v.1.15,2013-09-20 04:25:00,
2013-09-19 23:28:00,67.9,65.8,29.80,South,188,5.0,10.0,93,0.07,,,0.19,Wunderground v.1.15,2013-09-20 04:28:00,
2013-09-19 23:31:00,67.8,65.7,29.80,WSW,238,5.0,10.0,93,0.07,,,0.19,Wunderground v.1.15,2013-09-20 04:31:00,
2013-09-19 23:32:00,67.8,65.7,29.80,SSW,199,5.0,10.0,93,0.07,,,0.19,Wunderground v.1.15,2013-09-20 04:32:00,
2013-09-19 23:34:00,67.8,65.7,29.80,SSW,207,5.0,10.0,93,0.07,,,0.19,Wunderground v.1.15,2013-09-20 04:34:00,
2013-09-19 23:35:00,67.7,65.6,29.80,West,274,5.0,10.0,93,0.07,,,0.19,Wunderground v.1.15,2013-09-20 04:35:00,
2013-09-19 23:36:00,67.7,65.6,29.80,SSW,211,5.0,10.0,93,0.07,,,0.19,Wunderground v.1.15,2013-09-20 04:36:00,
2013-09-19 23:37:00,67.7,65.6,29.80,SW,225,5.0,10.0,93,0.06,,,0.19,Wunderground v.1.15,2013-09-20 04:37:00,
2013-09-19 23:39:00,67.7,65.6,29.80,SSW,200,5.0,10.0,93,0.05,,,0.19,Wunderground v.1.15,2013-09-20 04:39:00,
2013-09-19 23:41:00,67.7,65.6,29.80,SSW,202,4.0,4.0,93,0.04,,,0.19,Wunderground v.1.15,2013-09-20 04:41:00,
2013-09-19 23:42:00,67.6,65.5,29.80,SW,215,4.0,4.0,93,0.04,,,0.19,Wunderground v.1.15,2013-09-20 04:42:00,
2013-09-19 23:44:00,67.6,65.5,29.79,SSW,192,4.0,10.0,93,0.04,,,0.19,Wunderground v.1.15,2013-09-20 04:44:00,
2013-09-19 23:45:00,67.6,65.5,29.79,South,186,4.0,10.0,93,0.00,,,0.19,Wunderground v.1.15,2013-09-20 04:45:00,
2013-09-19 23:48:00,67.6,65.5,29.80,South,186,4.0,10.0,93,0.00,,,0.19,Wunderground v.1.15,2013-09-20 04:48:00,
2013-09-19 23:49:00,67.6,65.5,29.80,South,186,4.0,10.0,93,0.00,,,0.19,Wunderground v.1.15,2013-09-20 04:49:00,
2013-09-19 23:50:00,67.5,65.4,29.80,SSW,196,4.0,7.0,93,0.00,,,0.19,Wunderground v.1.15,2013-09-20 04:50:00,
2013-09-19 23:51:00,67.5,65.4,29.80,South,176,4.0,7.0,93,0.00,,,0.19,Wunderground v.1.15,2013-09-20 04:51:00,
2013-09-19 23:56:00,67.4,65.3,29.80,South,187,4.0,7.0,93,0.00,,,0.19,Wunderground v.1.15,2013-09-20 04:56:00,
2013-09-19 23:59:00,67.4,65.3,29.80,South,191,4.0,7.0,93,0.00,,,0.19,Wunderground v.1.15,2013-09-20 04:59:00,